Time,TemperatureF,DewpointF,PressureIn,WindDirection,WindDirectionDegrees,WindSpeedMPH,WindSpeedGustMPH,Humidity,HourlyPrecipIn,Conditions,Clouds,dailyrainin,SoftwareType,DateUTC
2013-02-15 00:00:00,47.8,34.2,-100.00,SSE,165,0.0,3.0,59,0.00,,,0.00,meteohub,2013-02-15 06:00:00,
2013-02-15 00:03:00,47.7,34.5,-100.00,SSE,165,0.0,2.0,60,0.00,,,0.00,meteohub,2013-02-15 06:03:00,
2013-02-15 00:04:00,47.7,34.5,-100.00,SSE,165,0.0,2.0,60,0.00,,,0.00,meteohub,2013-02-15 06:04:00,
2013-02-15 00:05:00,47.5,34.3,-100.00,SSE,165,0.0,2.0,60,0.00,,,0.00,meteohub,2013-02-15 06:05:00,
2013-02-15 00:08:00,47.3,34.2,-100.00,SSE,165,0.0,1.0,60,0.00,,,0.00,meteohub,2013-02-15 06:08:00,
2013-02-15 00:09:00,47.1,34.0,-100.00,SSE,165,0.0,1.0,60,0.00,,,0.00,meteohub,2013-02-15 06:09:00,
2013-02-15 00:10:00,46.9,34.2,-100.00,SSE,165,0.0,1.0,61,0.00,,,0.00,meteohub,2013-02-15 06:10:00,
2013-02-15 00:13:00,46.8,34.0,-100.00,SSE,165,0.0,0.0,61,0.00,,,0.00,meteohub,2013-02-15 06:13:00,
2013-02-15 00:14:00,46.8,34.5,-100.00,SSE,165,0.0,0.0,62,0.00,,,0.00,meteohub,2013-02-15 06:14:00,
2013-02-15 00:15:00,46.6,34.3,-100.00,SSE,165,0.0,0.0,62,0.00,,,0.00,meteohub,2013-02-15 06:15:00,
2013-02-15 00:18:00,46.2,34.3,-100.00,SSE,165,0.0,0.0,63,0.00,,,0.00,meteohub,2013-02-15 06:18:00,
2013-02-15 00:19:00,46.2,34.3,-100.00,SSE,165,0.0,0.0,63,0.00,,,0.00,meteohub,2013-02-15 06:19:00,
2013-02-15 00:20:00,46.0,34.2,-100.00,SSE,165,0.0,0.0,63,0.00,,,0.00,meteohub,2013-02-15 06:20:00,
2013-02-15 00:21:00,46.0,34.5,-100.00,SSE,165,1.0,0.0,64,0.00,,,0.00,meteohub,2013-02-15 06:21:00,
2013-02-15 00:23:00,46.0,34.5,-100.00,SSE,165,2.0,0.0,64,0.00,,,0.00,meteohub,2013-02-15 06:23:00,
2013-02-15 00:24:00,45.9,34.3,-100.00,SSE,165,1.0,0.0,64,0.00,,,0.00,meteohub,2013-02-15 06:24:00,
2013-02-15 00:25:00,45.9,34.3,-100.00,SSE,165,1.0,0.0,64,0.00,,,0.00,meteohub,2013-02-15 06:25:00,
2013-02-15 00:26:00,45.9,34.7,-100.00,SSE,165,2.0,2.0,65,0.00,,,0.00,meteohub,2013-02-15 06:26:00,
2013-02-15 00:28:00,45.7,34.5,-100.00,SSE,165,1.0,2.0,65,0.00,,,0.00,meteohub,2013-02-15 06:28:00,
2013-02-15 00:29:00,45.7,35.1,-100.00,SSE,165,1.0,2.0,66,0.00,,,0.00,meteohub,2013-02-15 06:29:00,
2013-02-15 00:30:00,45.9,35.1,-100.00,SSE,165,1.0,2.0,66,0.00,,,0.00,meteohub,2013-02-15 06:30:00,
2013-02-15 00:31:00,45.9,35.1,-100.00,SSE,165,1.0,2.0,66,0.00,,,0.00,meteohub,2013-02-15 06:31:00,
2013-02-15 00:33:00,45.9,35.1,-100.00,SSE,165,0.0,2.0,66,0.00,,,0.00,meteohub,2013-02-15 06:33:00,
2013-02-15 00:34:00,45.9,35.1,-100.00,SSE,165,0.0,2.0,66,0.00,,,0.00,meteohub,2013-02-15 06:34:00,
2013-02-15 00:35:00,45.9,35.1,-100.00,SSE,165,0.0,2.0,66,0.00,,,0.00,meteohub,2013-02-15 06:35:00,
2013-02-15 00:37:00,45.9,34.7,-100.00,SSE,165,0.0,2.0,65,0.00,,,0.00,meteohub,2013-02-15 06:37:00,
2013-02-15 00:38:00,45.9,35.1,-100.00,SSE,165,0.0,2.0,66,0.00,,,0.00,meteohub,2013-02-15 06:38:00,
2013-02-15 00:39:00,45.9,34.7,-100.00,SSE,165,0.0,2.0,65,0.00,,,0.00,meteohub,2013-02-15 06:39:00,
2013-02-15 00:40:00,45.9,34.7,-100.00,SSE,165,0.0,2.0,65,0.00,,,0.00,meteohub,2013-02-15 06:40:00,
2013-02-15 00:42:00,45.9,34.7,-100.00,SSE,165,0.0,2.0,65,0.00,,,0.00,meteohub,2013-02-15 06:42:00,
2013-02-15 00:44:00,45.9,35.1,-100.00,SSE,165,0.0,2.0,66,0.00,,,0.00,meteohub,2013-02-15 06:44:00,
2013-02-15 00:46:00,46.0,34.9,-100.00,SSE,165,0.0,2.0,65,0.00,,,0.00,meteohub,2013-02-15 06:46:00,
2013-02-15 00:47:00,46.0,34.9,-100.00,SSE,165,0.0,2.0,65,0.00,,,0.00,meteohub,2013-02-15 06:47:00,
2013-02-15 00:49:00,46.0,34.5,-100.00,SSE,165,0.0,2.0,64,0.00,,,0.00,meteohub,2013-02-15 06:49:00,
2013-02-15 00:50:00,46.0,34.5,-100.00,SSE,165,0.0,2.0,64,0.00,,,0.00,meteohub,2013-02-15 06:50:00,
2013-02-15 00:51:00,46.0,34.5,-100.00,SSE,165,0.0,0.0,64,0.00,,,0.00,meteohub,2013-02-15 06:51:00,
2013-02-15 00:52:00,46.2,34.7,-100.00,SSE,165,0.0,0.0,64,0.00,,,0.00,meteohub,2013-02-15 06:52:00,
2013-02-15 00:54:00,46.2,34.7,-100.00,SSE,165,0.0,0.0,64,0.00,,,0.00,meteohub,2013-02-15 06:54:00,
2013-02-15 00:55:00,46.4,34.9,-100.00,SSE,165,0.0,0.0,64,0.00,,,0.00,meteohub,2013-02-15 06:55:00,
2013-02-15 00:56:00,46.4,34.9,-100.00,SSE,165,2.0,0.0,64,0.00,,,0.00,meteohub,2013-02-15 06:56:00,
2013-02-15 00:57:00,46.4,35.2,-100.00,SSE,165,4.0,0.0,65,0.00,,,0.00,meteohub,2013-02-15 06:57:00,
2013-02-15 00:59:00,46.6,35.8,-100.00,North,355,10.0,0.0,66,0.00,,,0.00,meteohub,2013-02-15 06:59:00,
2013-02-15 01:00:00,46.8,36.3,-100.00,North,349,9.0,0.0,67,0.00,,,0.00,meteohub,2013-02-15 07:00:00,
2013-02-15 01:01:00,46.8,36.7,-100.00,North,355,9.0,11.0,68,0.00,,,0.00,meteohub,2013-02-15 07:01:00,
2013-02-15 01:02:00,46.8,36.7,-100.00,North,355,11.0,11.0,68,0.00,,,0.00,meteohub,2013-02-15 07:02:00,
2013-02-15 01:04:00,46.9,36.9,-100.00,North,351,6.0,11.0,68,0.00,,,0.00,meteohub,2013-02-15 07:04:00,
2013-02-15 01:05:00,47.1,37.0,-100.00,North,351,4.0,11.0,68,0.00,,,0.00,meteohub,2013-02-15 07:05:00,
2013-02-15 01:06:00,47.3,36.9,-100.00,North,355,3.0,11.0,67,0.00,,,0.00,meteohub,2013-02-15 07:06:00,
2013-02-15 01:07:00,47.3,36.9,-100.00,North,355,8.0,11.0,67,0.00,,,0.00,meteohub,2013-02-15 07:07:00,
2013-02-15 01:10:00,47.7,36.9,-100.00,North,355,4.0,11.0,66,0.00,,,0.00,meteohub,2013-02-15 07:10:00,
2013-02-15 01:11:00,47.8,37.0,-100.00,North,355,6.0,11.0,66,0.00,,,0.00,meteohub,2013-02-15 07:11:00,
2013-02-15 01:12:00,48.0,37.2,-100.00,North,355,7.0,11.0,66,0.00,,,0.00,meteohub,2013-02-15 07:12:00,
2013-02-15 01:14:00,48.6,37.8,-100.00,North,355,7.0,11.0,66,0.00,,,0.00,meteohub,2013-02-15 07:14:00,
2013-02-15 01:15:00,48.7,38.3,-100.00,North,0,8.0,11.0,67,0.00,,,0.00,meteohub,2013-02-15 07:15:00,
2013-02-15 01:16:00,48.7,37.9,-100.00,North,11,9.0,11.0,66,0.00,,,0.00,meteohub,2013-02-15 07:16:00,
2013-02-15 01:17:00,48.9,38.5,-100.00,North,9,7.0,11.0,67,0.00,,,0.00,meteohub,2013-02-15 07:17:00,
2013-02-15 01:19:00,49.3,38.8,-100.00,North,9,9.0,11.0,67,0.00,,,0.00,meteohub,2013-02-15 07:19:00,
2013-02-15 01:21:00,49.5,39.0,-100.00,North,9,9.0,13.0,67,0.00,,,0.00,meteohub,2013-02-15 07:21:00,
2013-02-15 01:22:00,49.5,39.0,-100.00,North,11,6.0,13.0,67,0.00,,,0.00,meteohub,2013-02-15 07:22:00,
2013-02-15 01:25:00,49.5,38.1,-100.00,North,0,10.0,13.0,65,0.00,,,0.00,meteohub,2013-02-15 07:25:00,
2013-02-15 01:26:00,49.5,38.1,-100.00,NNE,13,9.0,14.0,65,0.00,,,0.00,meteohub,2013-02-15 07:26:00,
2013-02-15 01:27:00,49.6,38.3,-100.00,North,5,5.0,14.0,65,0.00,,,0.00,meteohub,2013-02-15 07:27:00,
2013-02-15 01:30:00,49.6,37.6,-100.00,NNE,30,8.0,14.0,63,0.00,,,0.00,meteohub,2013-02-15 07:30:00,
2013-02-15 01:31:00,49.6,37.6,-100.00,NNE,28,5.0,14.0,63,0.00,,,0.00,meteohub,2013-02-15 07:31:00,
2013-02-15 01:32:00,49.6,37.6,-100.00,North,5,12.0,14.0,63,0.00,,,0.00,meteohub,2013-02-15 07:32:00,
2013-02-15 01:33:00,49.6,37.6,-100.00,NNE,15,8.0,14.0,63,0.00,,,0.00,meteohub,2013-02-15 07:33:00,
2013-02-15 01:35:00,49.5,37.0,-100.00,North,9,12.0,17.0,62,0.00,,,0.00,meteohub,2013-02-15 07:35:00,
2013-02-15 01:36:00,49.5,37.0,-100.00,NE,38,10.0,17.0,62,0.00,,,0.00,meteohub,2013-02-15 07:36:00,
2013-02-15 01:37:00,49.5,37.0,-100.00,NNE,30,5.0,17.0,62,0.00,,,0.00,meteohub,2013-02-15 07:37:00,
2013-02-15 01:38:00,49.5,37.0,-100.00,NE,34,5.0,17.0,62,0.00,,,0.00,meteohub,2013-02-15 07:38:00,
2013-02-15 01:40:00,49.5,37.0,-100.00,NNE,28,8.0,17.0,62,0.00,,,0.00,meteohub,2013-02-15 07:40:00,
2013-02-15 01:42:00,49.5,37.0,-100.00,NNE,30,3.0,17.0,62,0.00,,,0.00,meteohub,2013-02-15 07:42:00,
2013-02-15 01:43:00,49.5,37.0,-100.00,NNE,30,8.0,17.0,62,0.00,,,0.00,meteohub,2013-02-15 07:43:00,
2013-02-15 01:46:00,49.3,36.9,-100.00,NE,34,6.0,16.0,62,0.00,,,0.00,meteohub,2013-02-15 07:46:00,
2013-02-15 01:47:00,49.3,36.9,-100.00,NE,35,6.0,16.0,62,0.00,,,0.00,meteohub,2013-02-15 07:47:00,
2013-02-15 01:48:00,49.3,36.3,-100.00,NNE,33,7.0,16.0,61,0.00,,,0.00,meteohub,2013-02-15 07:48:00,
2013-02-15 01:51:00,49.3,36.9,-100.00,NNE,23,6.0,13.0,62,0.00,,,0.00,meteohub,2013-02-15 07:51:00,
2013-02-15 01:52:00,49.1,36.7,-100.00,NNE,32,4.0,13.0,62,0.00,,,0.00,meteohub,2013-02-15 07:52:00,
2013-02-15 01:53:00,49.1,36.7,-100.00,NE,36,9.0,13.0,62,0.00,,,0.00,meteohub,2013-02-15 07:53:00,
2013-02-15 01:56:00,48.9,36.5,-100.00,NE,40,5.0,13.0,62,0.00,,,0.00,meteohub,2013-02-15 07:56:00,
2013-02-15 01:57:00,48.9,36.5,-100.00,NE,35,10.0,13.0,62,0.00,,,0.00,meteohub,2013-02-15 07:57:00,
2013-02-15 01:58:00,48.9,36.5,-100.00,NNE,17,8.0,13.0,62,0.00,,,0.00,meteohub,2013-02-15 07:58:00,
2013-02-15 01:59:00,48.7,36.3,-100.00,NNE,18,5.0,13.0,62,0.00,,,0.00,meteohub,2013-02-15 07:59:00,
2013-02-15 02:01:00,48.7,36.3,-100.00,NNE,19,4.0,13.0,62,0.00,,,0.00,meteohub,2013-02-15 08:01:00,
2013-02-15 02:02:00,48.7,36.3,-100.00,NNE,28,9.0,13.0,62,0.00,,,0.00,meteohub,2013-02-15 08:02:00,
2013-02-15 02:03:00,48.7,36.3,-100.00,NNE,26,7.0,13.0,62,0.00,,,0.00,meteohub,2013-02-15 08:03:00,
2013-02-15 02:04:00,48.7,36.3,-100.00,NNE,24,7.0,13.0,62,0.00,,,0.00,meteohub,2013-02-15 08:04:00,
2013-02-15 02:06:00,48.9,36.1,-100.00,NNE,27,4.0,14.0,61,0.00,,,0.00,meteohub,2013-02-15 08:06:00,
2013-02-15 02:08:00,48.9,36.5,-100.00,NNE,26,5.0,14.0,62,0.00,,,0.00,meteohub,2013-02-15 08:08:00,
2013-02-15 02:09:00,48.9,36.1,-100.00,NNE,18,5.0,14.0,61,0.00,,,0.00,meteohub,2013-02-15 08:09:00,
2013-02-15 02:12:00,48.9,36.5,-100.00,NNE,29,11.0,14.0,62,0.00,,,0.00,meteohub,2013-02-15 08:12:00,
2013-02-15 02:13:00,48.9,36.1,-100.00,NNE,31,12.0,14.0,61,0.00,,,0.00,meteohub,2013-02-15 08:13:00,
2013-02-15 02:14:00,48.9,36.1,-100.00,NNE,24,10.0,14.0,61,0.00,,,0.00,meteohub,2013-02-15 08:14:00,
2013-02-15 02:17:00,49.1,36.3,-100.00,NE,44,13.0,13.0,61,0.00,,,0.00,meteohub,2013-02-15 08:17:00,
2013-02-15 02:18:00,49.1,35.8,-100.00,NE,53,15.0,15.0,60,0.00,,,0.00,meteohub,2013-02-15 08:18:00,
2013-02-15 02:19:00,49.1,35.8,-100.00,NE,36,12.0,13.0,60,0.00,,,0.00,meteohub,2013-02-15 08:19:00,
2013-02-15 02:20:00,49.3,36.0,-100.00,NNE,17,6.0,13.0,60,0.00,,,0.00,meteohub,2013-02-15 08:20:00,
2013-02-15 02:22:00,49.3,36.0,-100.00,NNE,29,5.0,15.0,60,0.00,,,0.00,meteohub,2013-02-15 08:22:00,
2013-02-15 02:24:00,49.5,36.1,-100.00,NNE,26,11.0,15.0,60,0.00,,,0.00,meteohub,2013-02-15 08:24:00,
2013-02-15 02:25:00,49.5,36.1,-100.00,NNE,26,6.0,16.0,60,0.00,,,0.00,meteohub,2013-02-15 08:25:00,
2013-02-15 02:27:00,49.5,35.8,-100.00,NNE,22,7.0,16.0,59,0.00,,,0.00,meteohub,2013-02-15 08:27:00,
2013-02-15 02:29:00,49.5,36.1,-100.00,NNE,24,11.0,16.0,60,0.00,,,0.00,meteohub,2013-02-15 08:29:00,
2013-02-15 02:31:00,49.5,36.1,-100.00,NNE,27,11.0,16.0,60,0.00,,,0.00,meteohub,2013-02-15 08:31:00,
2013-02-15 02:34:00,49.5,35.8,-100.00,NNE,26,7.0,16.0,59,0.00,,,0.00,meteohub,2013-02-15 08:34:00,
2013-02-15 02:35:00,49.5,35.8,-100.00,NNE,24,6.0,16.0,59,0.00,,,0.00,meteohub,2013-02-15 08:35:00,
2013-02-15 02:36:00,49.5,35.8,-100.00,NNE,22,11.0,16.0,59,0.00,,,0.00,meteohub,2013-02-15 08:36:00,
2013-02-15 02:39:00,49.5,35.8,-100.00,NNE,22,9.0,16.0,59,0.00,,,0.00,meteohub,2013-02-15 08:39:00,
2013-02-15 02:40:00,49.5,35.8,-100.00,NNE,15,11.0,16.0,59,0.00,,,0.00,meteohub,2013-02-15 08:40:00,
2013-02-15 02:41:00,49.5,35.8,-100.00,North,5,11.0,16.0,59,0.00,,,0.00,meteohub,2013-02-15 08:41:00,
2013-02-15 02:45:00,49.3,36.0,-100.00,NNE,22,10.0,16.0,60,0.00,,,0.00,meteohub,2013-02-15 08:45:00,
2013-02-15 02:46:00,49.3,36.0,-100.00,NNE,24,6.0,16.0,60,0.00,,,0.00,meteohub,2013-02-15 08:46:00,
2013-02-15 02:50:00,49.1,35.8,-100.00,NNE,18,5.0,16.0,60,0.00,,,0.00,meteohub,2013-02-15 08:50:00,
2013-02-15 02:51:00,49.1,35.8,-100.00,NNE,13,9.0,16.0,60,0.00,,,0.00,meteohub,2013-02-15 08:51:00,
2013-02-15 02:52:00,49.1,35.8,-100.00,NNE,24,11.0,16.0,60,0.00,,,0.00,meteohub,2013-02-15 08:52:00,
2013-02-15 02:55:00,49.1,35.4,-100.00,NNE,24,14.0,17.0,59,0.00,,,0.00,meteohub,2013-02-15 08:55:00,
2013-02-15 02:56:00,49.1,35.4,-100.00,NE,38,6.0,17.0,59,0.00,,,0.00,meteohub,2013-02-15 08:56:00,
2013-02-15 02:58:00,49.1,35.4,-100.00,NE,42,12.0,17.0,59,0.00,,,0.00,meteohub,2013-02-15 08:58:00,
2013-02-15 03:01:00,49.3,35.6,-100.00,NNE,15,12.0,17.0,59,0.00,,,0.00,meteohub,2013-02-15 09:01:00,
2013-02-15 03:02:00,49.3,35.6,-100.00,NNE,26,11.0,17.0,59,0.00,,,0.00,meteohub,2013-02-15 09:02:00,
2013-02-15 03:03:00,49.3,35.6,-100.00,NNE,22,14.0,17.0,59,0.00,,,0.00,meteohub,2013-02-15 09:03:00,
2013-02-15 03:06:00,49.3,35.6,-100.00,NNE,17,10.0,18.0,59,0.00,,,0.00,meteohub,2013-02-15 09:06:00,
2013-02-15 03:07:00,49.3,35.1,-100.00,North,5,6.0,18.0,58,0.00,,,0.00,meteohub,2013-02-15 09:07:00,
2013-02-15 03:08:00,49.3,35.6,-100.00,NNE,21,12.0,18.0,59,0.00,,,0.00,meteohub,2013-02-15 09:08:00,
2013-02-15 03:12:00,49.1,35.4,-100.00,NNE,25,12.0,18.0,59,0.00,,,0.00,meteohub,2013-02-15 09:12:00,
2013-02-15 03:13:00,49.1,34.9,-100.00,NNE,23,10.0,18.0,58,0.00,,,0.00,meteohub,2013-02-15 09:13:00,
2013-02-15 03:17:00,49.1,34.5,-100.00,NE,42,16.0,18.0,57,0.00,,,0.00,meteohub,2013-02-15 09:17:00,
2013-02-15 03:18:00,49.3,34.7,-100.00,NE,42,12.0,18.0,57,0.00,,,0.00,meteohub,2013-02-15 09:18:00,
2013-02-15 03:22:00,49.3,34.7,-100.00,North,0,14.0,23.0,57,0.00,,,0.00,meteohub,2013-02-15 09:22:00,
2013-02-15 03:23:00,49.3,34.2,-100.00,NE,41,12.0,23.0,56,0.00,,,0.00,meteohub,2013-02-15 09:23:00,
2013-02-15 03:27:00,49.3,34.7,-100.00,NNE,24,11.0,23.0,57,0.00,,,0.00,meteohub,2013-02-15 09:27:00,
2013-02-15 03:28:00,49.3,34.7,-100.00,NNE,13,8.0,23.0,57,0.00,,,0.00,meteohub,2013-02-15 09:28:00,
2013-02-15 03:32:00,49.3,34.7,-100.00,NE,43,17.0,23.0,57,0.00,,,0.00,meteohub,2013-02-15 09:32:00,
2013-02-15 03:33:00,49.3,34.7,-100.00,NNE,19,12.0,23.0,57,0.00,,,0.00,meteohub,2013-02-15 09:33:00,
2013-02-15 03:34:00,49.1,34.5,-100.00,NNE,15,13.0,23.0,57,0.00,,,0.00,meteohub,2013-02-15 09:34:00,
2013-02-15 03:37:00,49.1,34.5,-100.00,NNE,15,8.0,22.0,57,0.00,,,0.00,meteohub,2013-02-15 09:37:00,
2013-02-15 03:38:00,49.1,34.5,-100.00,NNE,19,10.0,22.0,57,0.00,,,0.00,meteohub,2013-02-15 09:38:00,
2013-02-15 03:39:00,49.1,34.5,-100.00,NNE,32,11.0,22.0,57,0.00,,,0.00,meteohub,2013-02-15 09:39:00,
2013-02-15 03:42:00,48.9,34.3,-100.00,NNE,25,10.0,22.0,57,0.00,,,0.00,meteohub,2013-02-15 09:42:00,
2013-02-15 03:43:00,48.9,34.3,-100.00,NE,47,10.0,22.0,57,0.00,,,0.00,meteohub,2013-02-15 09:43:00,
2013-02-15 03:44:00,48.9,34.3,-100.00,NNE,26,16.0,22.0,57,0.00,,,0.00,meteohub,2013-02-15 09:44:00,
2013-02-15 03:48:00,48.9,34.0,-100.00,NNE,31,10.0,19.0,56,0.00,,,0.00,meteohub,2013-02-15 09:48:00,
2013-02-15 03:49:00,48.9,34.3,-100.00,NE,36,7.0,19.0,57,0.00,,,0.00,meteohub,2013-02-15 09:49:00,
2013-02-15 03:50:00,48.7,34.2,-100.00,NNE,24,12.0,19.0,57,0.00,,,0.00,meteohub,2013-02-15 09:50:00,
2013-02-15 03:53:00,48.7,34.2,-100.00,NE,34,5.0,20.0,57,0.00,,,0.00,meteohub,2013-02-15 09:53:00,
2013-02-15 03:54:00,48.7,34.2,-100.00,NNE,27,6.0,20.0,57,0.00,,,0.00,meteohub,2013-02-15 09:54:00,
2013-02-15 03:55:00,48.7,34.2,-100.00,NE,47,13.0,20.0,57,0.00,,,0.00,meteohub,2013-02-15 09:55:00,
2013-02-15 03:58:00,48.7,33.8,-100.00,NNE,28,11.0,20.0,56,0.00,,,0.00,meteohub,2013-02-15 09:58:00,
2013-02-15 03:59:00,48.7,34.2,-100.00,NNE,32,9.0,20.0,57,0.00,,,0.00,meteohub,2013-02-15 09:59:00,
2013-02-15 04:00:00,48.7,34.2,-100.00,NE,34,10.0,20.0,57,0.00,,,0.00,meteohub,2013-02-15 10:00:00,
2013-02-15 04:04:00,48.7,34.2,-100.00,NNE,24,8.0,20.0,57,0.00,,,0.00,meteohub,2013-02-15 10:04:00,
2013-02-15 04:05:00,48.7,34.2,-100.00,NE,38,4.0,20.0,57,0.00,,,0.00,meteohub,2013-02-15 10:05:00,
2013-02-15 04:09:00,48.7,33.8,-100.00,NNE,32,7.0,18.0,56,0.00,,,0.00,meteohub,2013-02-15 10:09:00,
2013-02-15 04:10:00,48.7,33.8,-100.00,NE,38,10.0,18.0,56,0.00,,,0.00,meteohub,2013-02-15 10:10:00,
2013-02-15 04:11:00,48.7,33.8,-100.00,NNE,28,13.0,19.0,56,0.00,,,0.00,meteohub,2013-02-15 10:11:00,
2013-02-15 04:14:00,48.7,33.8,-100.00,NNE,31,8.0,19.0,56,0.00,,,0.00,meteohub,2013-02-15 10:14:00,
2013-02-15 04:15:00,48.7,33.8,-100.00,NE,44,12.0,19.0,56,0.00,,,0.00,meteohub,2013-02-15 10:15:00,
2013-02-15 04:17:00,48.7,33.8,-100.00,NE,41,11.0,19.0,56,0.00,,,0.00,meteohub,2013-02-15 10:17:00,
2013-02-15 04:20:00,48.7,33.8,-100.00,NNE,32,6.0,19.0,56,0.00,,,0.00,meteohub,2013-02-15 10:20:00,
2013-02-15 04:22:00,48.6,33.6,-100.00,NNE,18,9.0,19.0,56,0.00,,,0.00,meteohub,2013-02-15 10:22:00,
2013-02-15 04:25:00,48.6,33.6,-100.00,NNE,27,15.0,19.0,56,0.00,,,0.00,meteohub,2013-02-15 10:25:00,
2013-02-15 04:26:00,48.6,33.6,-100.00,NE,49,11.0,19.0,56,0.00,,,0.00,meteohub,2013-02-15 10:26:00,
2013-02-15 04:27:00,48.6,33.6,-100.00,NE,38,8.0,19.0,56,0.00,,,0.00,meteohub,2013-02-15 10:27:00,
2013-02-15 04:30:00,48.6,34.0,-100.00,NNE,32,7.0,18.0,57,0.00,,,0.00,meteohub,2013-02-15 10:30:00,
2013-02-15 04:31:00,48.6,34.0,-100.00,NNE,20,13.0,18.0,57,0.00,,,0.00,meteohub,2013-02-15 10:31:00,
2013-02-15 04:32:00,48.6,34.0,-100.00,ENE,58,11.0,18.0,57,0.00,,,0.00,meteohub,2013-02-15 10:32:00,
2013-02-15 04:36:00,48.6,34.0,-100.00,NE,51,17.0,18.0,57,0.00,,,0.00,meteohub,2013-02-15 10:36:00,
2013-02-15 04:37:00,48.6,34.0,-100.00,NE,38,18.0,18.0,57,0.00,,,0.00,meteohub,2013-02-15 10:37:00,
2013-02-15 04:38:00,48.6,33.6,-100.00,NNE,30,14.0,18.0,56,0.00,,,0.00,meteohub,2013-02-15 10:38:00,
2013-02-15 04:41:00,48.6,33.6,-100.00,NNE,18,12.0,18.0,56,0.00,,,0.00,meteohub,2013-02-15 10:41:00,
2013-02-15 04:42:00,48.6,33.6,-100.00,NNE,30,5.0,18.0,56,0.00,,,0.00,meteohub,2013-02-15 10:42:00,
2013-02-15 04:43:00,48.6,33.6,-100.00,NE,37,11.0,18.0,56,0.00,,,0.00,meteohub,2013-02-15 10:43:00,
2013-02-15 04:46:00,48.6,33.6,-100.00,NNE,28,10.0,18.0,56,0.00,,,0.00,meteohub,2013-02-15 10:46:00,
2013-02-15 04:47:00,48.6,33.6,-100.00,NE,35,8.0,18.0,56,0.00,,,0.00,meteohub,2013-02-15 10:47:00,
2013-02-15 04:48:00,48.6,33.6,-100.00,NNE,29,5.0,18.0,56,0.00,,,0.00,meteohub,2013-02-15 10:48:00,
2013-02-15 04:51:00,48.6,33.6,-100.00,NE,36,11.0,18.0,56,0.00,,,0.00,meteohub,2013-02-15 10:51:00,
2013-02-15 04:52:00,48.6,33.6,-100.00,NE,36,9.0,18.0,56,0.00,,,0.00,meteohub,2013-02-15 10:52:00,
2013-02-15 04:53:00,48.6,33.6,-100.00,NE,42,13.0,18.0,56,0.00,,,0.00,meteohub,2013-02-15 10:53:00,
2013-02-15 04:56:00,48.4,33.4,-100.00,NE,55,7.0,18.0,56,0.00,,,0.00,meteohub,2013-02-15 10:56:00,
2013-02-15 04:57:00,48.4,33.4,-100.00,NE,51,6.0,18.0,56,0.00,,,0.00,meteohub,2013-02-15 10:57:00,
2013-02-15 04:58:00,48.4,33.8,-100.00,NE,35,11.0,18.0,57,0.00,,,0.00,meteohub,2013-02-15 10:58:00,
2013-02-15 05:02:00,48.4,33.4,-100.00,NE,48,10.0,17.0,56,0.00,,,0.00,meteohub,2013-02-15 11:02:00,
2013-02-15 05:03:00,48.4,33.4,-100.00,NE,46,7.0,17.0,56,0.00,,,0.00,meteohub,2013-02-15 11:03:00,
2013-02-15 05:04:00,48.2,33.6,-100.00,NE,42,14.0,17.0,57,0.00,,,0.00,meteohub,2013-02-15 11:04:00,
2013-02-15 05:07:00,48.2,33.6,-100.00,NNE,18,6.0,15.0,57,0.00,,,0.00,meteohub,2013-02-15 11:07:00,
2013-02-15 05:08:00,48.2,33.6,-100.00,NNE,24,8.0,15.0,57,0.00,,,0.00,meteohub,2013-02-15 11:08:00,
2013-02-15 05:09:00,48.2,33.6,-100.00,NNE,24,4.0,15.0,57,0.00,,,0.00,meteohub,2013-02-15 11:09:00,
2013-02-15 05:12:00,48.0,34.0,-100.00,NNE,29,9.0,15.0,58,0.00,,,0.00,meteohub,2013-02-15 11:12:00,
2013-02-15 05:13:00,47.8,33.8,-100.00,NE,34,7.0,15.0,58,0.00,,,0.00,meteohub,2013-02-15 11:13:00,
2013-02-15 05:14:00,47.8,33.8,-100.00,NE,34,5.0,15.0,58,0.00,,,0.00,meteohub,2013-02-15 11:14:00,
2013-02-15 05:18:00,47.8,33.8,-100.00,North,10,6.0,14.0,58,0.00,,,0.00,meteohub,2013-02-15 11:18:00,
2013-02-15 05:19:00,47.7,34.0,-100.00,NNE,23,7.0,14.0,59,0.00,,,0.00,meteohub,2013-02-15 11:19:00,
2013-02-15 05:23:00,47.7,34.0,-100.00,NNE,28,7.0,13.0,59,0.00,,,0.00,meteohub,2013-02-15 11:23:00,
2013-02-15 05:24:00,47.7,34.0,-100.00,NNE,27,6.0,13.0,59,0.00,,,0.00,meteohub,2013-02-15 11:24:00,
2013-02-15 05:25:00,47.7,34.0,-100.00,NNE,28,6.0,13.0,59,0.00,,,0.00,meteohub,2013-02-15 11:25:00,
2013-02-15 05:28:00,47.7,34.0,-100.00,NE,38,6.0,12.0,59,0.00,,,0.00,meteohub,2013-02-15 11:28:00,
2013-02-15 05:29:00,47.7,34.0,-100.00,NE,39,8.0,12.0,59,0.00,,,0.00,meteohub,2013-02-15 11:29:00,
2013-02-15 05:30:00,47.7,34.0,-100.00,NNE,24,6.0,12.0,59,0.00,,,0.00,meteohub,2013-02-15 11:30:00,
2013-02-15 05:33:00,47.7,34.0,-100.00,NE,35,10.0,13.0,59,0.00,,,0.00,meteohub,2013-02-15 11:33:00,
2013-02-15 05:34:00,47.7,34.0,-100.00,NNE,30,3.0,13.0,59,0.00,,,0.00,meteohub,2013-02-15 11:34:00,
2013-02-15 05:36:00,47.5,33.8,-100.00,NNE,32,6.0,13.0,59,0.00,,,0.00,meteohub,2013-02-15 11:36:00,
2013-02-15 05:38:00,47.5,33.8,-100.00,NNE,31,5.0,13.0,59,0.00,,,0.00,meteohub,2013-02-15 11:38:00,
2013-02-15 05:39:00,47.5,33.8,-100.00,NNE,28,10.0,13.0,59,0.00,,,0.00,meteohub,2013-02-15 11:39:00,
2013-02-15 05:40:00,47.5,33.8,-100.00,NNE,28,7.0,13.0,59,0.00,,,0.00,meteohub,2013-02-15 11:40:00,
2013-02-15 05:41:00,47.3,33.6,-100.00,NE,40,7.0,13.0,59,0.00,,,0.00,meteohub,2013-02-15 11:41:00,
2013-02-15 05:43:00,47.3,34.2,-100.00,NNE,24,9.0,13.0,60,0.00,,,0.00,meteohub,2013-02-15 11:43:00,
2013-02-15 05:44:00,47.3,34.2,-100.00,NNE,25,5.0,13.0,60,0.00,,,0.00,meteohub,2013-02-15 11:44:00,
2013-02-15 05:45:00,47.3,34.2,-100.00,NNE,22,6.0,13.0,60,0.00,,,0.00,meteohub,2013-02-15 11:45:00,
2013-02-15 05:46:00,47.1,34.0,-100.00,NNE,29,5.0,14.0,60,0.00,,,0.00,meteohub,2013-02-15 11:46:00,
2013-02-15 05:49:00,47.1,34.0,-100.00,NNE,22,6.0,14.0,60,0.00,,,0.00,meteohub,2013-02-15 11:49:00,
2013-02-15 05:50:00,47.1,34.0,-100.00,NNE,28,3.0,14.0,60,0.00,,,0.00,meteohub,2013-02-15 11:50:00,
2013-02-15 05:52:00,47.1,34.3,-100.00,NNE,26,4.0,16.0,61,0.00,,,0.00,meteohub,2013-02-15 11:52:00,
2013-02-15 05:54:00,46.9,34.2,-100.00,NNE,28,5.0,16.0,61,0.00,,,0.00,meteohub,2013-02-15 11:54:00,
2013-02-15 05:55:00,46.9,33.8,-100.00,NNE,19,11.0,16.0,60,0.00,,,0.00,meteohub,2013-02-15 11:55:00,
2013-02-15 05:57:00,46.9,34.2,-100.00,NNE,28,3.0,16.0,61,0.00,,,0.00,meteohub,2013-02-15 11:57:00,
2013-02-15 05:59:00,46.9,34.2,-100.00,NNE,26,7.0,16.0,61,0.00,,,0.00,meteohub,2013-02-15 11:59:00,
2013-02-15 06:00:00,46.9,34.2,-100.00,NNE,24,9.0,16.0,61,0.00,,,0.00,meteohub,2013-02-15 12:00:00,
2013-02-15 06:02:00,46.9,34.2,-100.00,NNE,17,13.0,16.0,61,0.00,,,0.00,meteohub,2013-02-15 12:02:00,
2013-02-15 06:04:00,46.9,34.2,-100.00,NNE,14,6.0,16.0,61,0.00,,,0.00,meteohub,2013-02-15 12:04:00,
2013-02-15 06:05:00,46.9,34.2,-100.00,NNE,19,9.0,16.0,61,0.00,,,0.00,meteohub,2013-02-15 12:05:00,
2013-02-15 06:08:00,46.9,34.2,-100.00,NNE,18,7.0,13.0,61,0.00,,,0.00,meteohub,2013-02-15 12:08:00,
2013-02-15 06:10:00,46.8,34.0,-100.00,NNE,15,4.0,13.0,61,0.00,,,0.00,meteohub,2013-02-15 12:10:00,
2013-02-15 06:11:00,46.8,34.0,-100.00,NNE,15,5.0,13.0,61,0.00,,,0.00,meteohub,2013-02-15 12:11:00,
2013-02-15 06:13:00,46.8,34.5,-100.00,NNE,22,9.0,13.0,62,0.00,,,0.00,meteohub,2013-02-15 12:13:00,
2013-02-15 06:15:00,46.8,34.5,-100.00,North,0,11.0,13.0,62,0.00,,,0.00,meteohub,2013-02-15 12:15:00,
2013-02-15 06:16:00,46.8,34.5,-100.00,North,355,13.0,13.0,62,0.00,,,0.00,meteohub,2013-02-15 12:16:00,
2013-02-15 06:19:00,46.8,34.5,-100.00,North,355,11.0,13.0,62,0.00,,,0.00,meteohub,2013-02-15 12:19:00,
2013-02-15 06:21:00,46.8,34.5,-100.00,North,11,9.0,13.0,62,0.00,,,0.00,meteohub,2013-02-15 12:21:00,
2013-02-15 06:22:00,46.8,34.5,-100.00,NNE,29,9.0,13.0,62,0.00,,,0.00,meteohub,2013-02-15 12:22:00,
2013-02-15 06:24:00,46.8,34.5,-100.00,NNE,17,10.0,13.0,62,0.00,,,0.00,meteohub,2013-02-15 12:24:00,
2013-02-15 06:26:00,46.8,34.5,-100.00,NE,34,6.0,17.0,62,0.00,,,0.00,meteohub,2013-02-15 12:26:00,
2013-02-15 06:27:00,46.8,34.5,-100.00,NNE,22,8.0,17.0,62,0.00,,,0.00,meteohub,2013-02-15 12:27:00,
2013-02-15 06:29:00,46.8,34.9,-100.00,North,11,10.0,17.0,63,0.00,,,0.00,meteohub,2013-02-15 12:29:00,
2013-02-15 06:31:00,46.8,34.9,-100.00,NNE,32,10.0,17.0,63,0.00,,,0.00,meteohub,2013-02-15 12:31:00,
2013-02-15 06:32:00,46.8,34.9,-100.00,NE,51,10.0,17.0,63,0.00,,,0.00,meteohub,2013-02-15 12:32:00,
2013-02-15 06:33:00,46.8,34.9,-100.00,NE,34,13.0,17.0,63,0.00,,,0.00,meteohub,2013-02-15 12:33:00,
2013-02-15 06:35:00,46.8,34.9,-100.00,North,5,19.0,19.0,63,0.00,,,0.00,meteohub,2013-02-15 12:35:00,
2013-02-15 06:36:00,46.8,34.9,-100.00,NNE,23,15.0,19.0,63,0.00,,,0.00,meteohub,2013-02-15 12:36:00,
2013-02-15 06:37:00,46.8,34.5,-100.00,NNE,33,12.0,19.0,62,0.00,,,0.00,meteohub,2013-02-15 12:37:00,
2013-02-15 06:38:00,46.8,34.5,-100.00,NNE,24,14.0,19.0,62,0.00,,,0.00,meteohub,2013-02-15 12:38:00,
2013-02-15 06:40:00,46.8,34.9,-100.00,North,11,17.0,19.0,63,0.00,,,0.00,meteohub,2013-02-15 12:40:00,
2013-02-15 06:41:00,46.8,34.9,-100.00,NNE,17,8.0,19.0,63,0.00,,,0.00,meteohub,2013-02-15 12:41:00,
2013-02-15 06:42:00,46.8,34.9,-100.00,North,5,13.0,19.0,63,0.00,,,0.00,meteohub,2013-02-15 12:42:00,
2013-02-15 06:43:00,46.8,34.9,-100.00,NNE,25,20.0,20.0,63,0.00,,,0.00,meteohub,2013-02-15 12:43:00,
2013-02-15 06:45:00,46.8,34.5,-100.00,NE,51,16.0,19.0,62,0.00,,,0.00,meteohub,2013-02-15 12:45:00,
2013-02-15 06:47:00,46.6,34.3,-100.00,North,5,19.0,19.0,62,0.00,,,0.00,meteohub,2013-02-15 12:47:00,
2013-02-15 06:48:00,46.6,34.7,-100.00,NE,43,16.0,19.0,63,0.00,,,0.00,meteohub,2013-02-15 12:48:00,
2013-02-15 06:49:00,46.6,34.3,-100.00,North,355,14.0,19.0,62,0.00,,,0.00,meteohub,2013-02-15 12:49:00,
2013-02-15 06:51:00,46.4,34.5,-100.00,NNE,16,19.0,22.0,63,0.00,,,0.00,meteohub,2013-02-15 12:51:00,
2013-02-15 06:52:00,46.4,34.5,-100.00,NNE,32,13.0,22.0,63,0.00,,,0.00,meteohub,2013-02-15 12:52:00,
2013-02-15 06:53:00,46.2,34.3,-100.00,NNE,16,11.0,22.0,63,0.00,,,0.00,meteohub,2013-02-15 12:53:00,
2013-02-15 06:54:00,46.2,34.3,-100.00,NNE,22,14.0,22.0,63,0.00,,,0.00,meteohub,2013-02-15 12:54:00,
2013-02-15 06:56:00,46.0,34.5,-100.00,NNE,23,14.0,24.0,64,0.00,,,0.00,meteohub,2013-02-15 12:56:00,
2013-02-15 06:57:00,46.0,34.2,-100.00,North,11,13.0,24.0,63,0.00,,,0.00,meteohub,2013-02-15 12:57:00,
2013-02-15 06:59:00,46.0,34.5,-100.00,NNE,15,10.0,24.0,64,0.00,,,0.00,meteohub,2013-02-15 12:59:00,
2013-02-15 07:01:00,45.9,34.3,-100.00,NNE,18,13.0,26.0,64,0.00,,,0.00,meteohub,2013-02-15 13:01:00,
2013-02-15 07:03:00,45.7,34.2,-100.00,NE,40,18.0,26.0,64,0.00,,,0.00,meteohub,2013-02-15 13:03:00,
2013-02-15 07:04:00,45.7,34.2,-100.00,NNE,33,17.0,26.0,64,0.00,,,0.00,meteohub,2013-02-15 13:04:00,
2013-02-15 07:07:00,45.5,34.0,-100.00,NE,38,12.0,26.0,64,0.00,,,0.00,meteohub,2013-02-15 13:07:00,
2013-02-15 07:08:00,45.5,34.0,-100.00,NNE,15,19.0,26.0,64,0.00,,,0.00,meteohub,2013-02-15 13:08:00,
2013-02-15 07:10:00,45.3,33.8,-100.00,NE,41,8.0,26.0,64,0.00,,,0.00,meteohub,2013-02-15 13:10:00,
2013-02-15 07:12:00,45.3,33.8,-100.00,NNE,17,12.0,26.0,64,0.00,,,0.00,meteohub,2013-02-15 13:12:00,
2013-02-15 07:13:00,45.3,33.8,-100.00,NNE,21,14.0,26.0,64,0.00,,,0.00,meteohub,2013-02-15 13:13:00,
2013-02-15 07:15:00,45.1,34.2,-100.00,NE,40,12.0,26.0,65,0.00,,,0.00,meteohub,2013-02-15 13:15:00,
2013-02-15 07:17:00,45.1,34.2,-100.00,NNE,22,12.0,22.0,65,0.00,,,0.00,meteohub,2013-02-15 13:17:00,
2013-02-15 07:18:00,45.1,34.2,-100.00,NNE,24,11.0,22.0,65,0.00,,,0.00,meteohub,2013-02-15 13:18:00,
2013-02-15 07:20:00,45.1,34.2,-100.00,North,11,11.0,22.0,65,0.00,,,0.00,meteohub,2013-02-15 13:20:00,
2013-02-15 07:22:00,45.1,34.2,-100.00,NNE,26,9.0,20.0,65,0.00,,,0.00,meteohub,2013-02-15 13:22:00,
2013-02-15 07:24:00,45.1,34.2,-100.00,NE,40,10.0,20.0,65,0.00,,,0.00,meteohub,2013-02-15 13:24:00,
2013-02-15 07:25:00,45.1,34.5,-100.00,NE,40,9.0,20.0,66,0.00,,,0.00,meteohub,2013-02-15 13:25:00,
2013-02-15 07:28:00,45.0,34.3,-100.00,NE,34,6.0,18.0,66,0.00,,,0.00,meteohub,2013-02-15 13:28:00,
2013-02-15 07:29:00,45.0,34.3,-100.00,ENE,57,12.0,18.0,66,0.00,,,0.00,meteohub,2013-02-15 13:29:00,
2013-02-15 07:30:00,45.0,34.3,-100.00,NE,35,9.0,18.0,66,0.00,,,0.00,meteohub,2013-02-15 13:30:00,
2013-02-15 07:33:00,44.8,34.2,-100.00,NE,39,15.0,18.0,66,0.00,,,0.00,meteohub,2013-02-15 13:33:00,
2013-02-15 07:34:00,44.8,34.2,-100.00,NE,35,6.0,18.0,66,0.00,,,0.00,meteohub,2013-02-15 13:34:00,
2013-02-15 07:35:00,44.8,34.2,-100.00,NNE,19,12.0,17.0,66,0.00,,,0.00,meteohub,2013-02-15 13:35:00,
2013-02-15 07:36:00,44.8,34.5,-100.00,NNE,32,17.0,17.0,67,0.00,,,0.00,meteohub,2013-02-15 13:36:00,
2013-02-15 07:38:00,44.8,34.5,-100.00,NNE,26,12.0,17.0,67,0.00,,,0.00,meteohub,2013-02-15 13:38:00,
2013-02-15 07:39:00,44.8,34.2,-100.00,North,5,15.0,17.0,66,0.00,,,0.00,meteohub,2013-02-15 13:39:00,
2013-02-15 07:40:00,44.8,34.5,-100.00,NE,46,14.0,17.0,67,0.00,,,0.00,meteohub,2013-02-15 13:40:00,
2013-02-15 07:41:00,44.8,34.5,-100.00,NE,52,10.0,17.0,67,0.00,,,0.00,meteohub,2013-02-15 13:41:00,
2013-02-15 07:44:00,44.8,34.5,-100.00,NNE,24,7.0,17.0,67,0.00,,,0.00,meteohub,2013-02-15 13:44:00,
2013-02-15 07:45:00,44.8,34.5,-100.00,NNE,32,12.0,17.0,67,0.00,,,0.00,meteohub,2013-02-15 13:45:00,
2013-02-15 07:46:00,44.8,34.5,-100.00,NE,48,13.0,17.0,67,0.00,,,0.00,meteohub,2013-02-15 13:46:00,
2013-02-15 07:49:00,44.8,34.5,-100.00,North,355,10.0,17.0,67,0.00,,,0.00,meteohub,2013-02-15 13:49:00,
2013-02-15 07:50:00,44.6,34.3,-100.00,NNE,26,7.0,17.0,67,0.00,,,0.00,meteohub,2013-02-15 13:50:00,
2013-02-15 07:51:00,44.6,34.3,-100.00,NE,40,10.0,17.0,67,0.00,,,0.00,meteohub,2013-02-15 13:51:00,
2013-02-15 07:52:00,44.6,34.3,-100.00,NE,44,11.0,17.0,67,0.00,,,0.00,meteohub,2013-02-15 13:52:00,
2013-02-15 07:54:00,44.6,34.3,-100.00,NNE,28,10.0,17.0,67,0.00,,,0.00,meteohub,2013-02-15 13:54:00,
2013-02-15 07:55:00,44.6,34.3,-100.00,NE,38,11.0,17.0,67,0.00,,,0.00,meteohub,2013-02-15 13:55:00,
2013-02-15 07:56:00,44.6,34.7,-100.00,NNE,33,9.0,17.0,68,0.00,,,0.00,meteohub,2013-02-15 13:56:00,
2013-02-15 07:57:00,44.6,34.3,-100.00,NE,38,16.0,17.0,67,0.00,,,0.00,meteohub,2013-02-15 13:57:00,
2013-02-15 08:00:00,44.6,34.7,-100.00,NE,36,11.0,17.0,68,0.00,,,0.00,meteohub,2013-02-15 14:00:00,
2013-02-15 08:01:00,44.6,34.7,-100.00,NNE,17,12.0,20.0,68,0.00,,,0.00,meteohub,2013-02-15 14:01:00,
2013-02-15 08:02:00,44.6,34.7,-100.00,NE,47,13.0,20.0,68,0.00,,,0.00,meteohub,2013-02-15 14:02:00,
2013-02-15 08:05:00,44.6,34.7,-100.00,NE,44,11.0,20.0,68,0.00,,,0.00,meteohub,2013-02-15 14:05:00,
2013-02-15 08:06:00,44.6,35.1,-100.00,NE,40,6.0,20.0,69,0.00,,,0.00,meteohub,2013-02-15 14:06:00,
2013-02-15 08:07:00,44.6,35.1,-100.00,NNE,24,12.0,20.0,69,0.00,,,0.00,meteohub,2013-02-15 14:07:00,
2013-02-15 08:10:00,44.6,35.1,-100.00,NNE,23,11.0,20.0,69,0.00,,,0.00,meteohub,2013-02-15 14:10:00,
2013-02-15 08:11:00,44.6,35.1,-100.00,NNE,31,11.0,20.0,69,0.00,,,0.00,meteohub,2013-02-15 14:11:00,
2013-02-15 08:12:00,44.6,35.1,-100.00,NNE,12,9.0,20.0,69,0.00,,,0.00,meteohub,2013-02-15 14:12:00,
2013-02-15 08:16:00,44.4,35.2,-100.00,North,5,6.0,17.0,70,0.00,,,0.00,meteohub,2013-02-15 14:16:00,
2013-02-15 08:17:00,44.4,35.2,-100.00,NNE,14,10.0,17.0,70,0.00,,,0.00,meteohub,2013-02-15 14:17:00,
2013-02-15 08:18:00,44.4,35.2,-100.00,NNE,16,12.0,17.0,70,0.00,,,0.00,meteohub,2013-02-15 14:18:00,
2013-02-15 08:21:00,44.4,35.6,-100.00,NNE,30,8.0,17.0,71,0.00,,,0.00,meteohub,2013-02-15 14:21:00,
2013-02-15 08:22:00,44.4,35.6,-100.00,NNE,17,6.0,17.0,71,0.00,,,0.00,meteohub,2013-02-15 14:22:00,
2013-02-15 08:23:00,44.4,35.6,-100.00,NNE,12,12.0,17.0,71,0.00,,,0.00,meteohub,2013-02-15 14:23:00,
2013-02-15 08:26:00,44.4,35.6,-100.00,NNE,22,7.0,17.0,71,0.00,,,0.00,meteohub,2013-02-15 14:26:00,
2013-02-15 08:27:00,44.4,35.6,-100.00,NNE,17,14.0,17.0,71,0.00,,,0.00,meteohub,2013-02-15 14:27:00,
2013-02-15 08:28:00,44.4,35.6,-100.00,North,9,12.0,17.0,71,0.00,,,0.00,meteohub,2013-02-15 14:28:00,
2013-02-15 08:31:00,44.2,35.4,-100.00,NNE,18,13.0,18.0,71,0.00,,,0.00,meteohub,2013-02-15 14:31:00,
2013-02-15 08:32:00,44.2,35.4,-100.00,NE,34,10.0,18.0,71,0.00,,,0.00,meteohub,2013-02-15 14:32:00,
2013-02-15 08:33:00,44.2,35.4,-100.00,NE,51,12.0,18.0,71,0.00,,,0.00,meteohub,2013-02-15 14:33:00,
2013-02-15 08:36:00,44.2,35.4,-100.00,NNE,26,5.0,18.0,71,0.00,,,0.00,meteohub,2013-02-15 14:36:00,
2013-02-15 08:37:00,44.2,35.4,-100.00,NNE,32,7.0,18.0,71,0.00,,,0.00,meteohub,2013-02-15 14:37:00,
2013-02-15 08:38:00,44.2,35.8,-100.00,NE,42,13.0,18.0,72,0.00,,,0.00,meteohub,2013-02-15 14:38:00,
2013-02-15 08:41:00,44.2,35.8,-100.00,NE,34,11.0,18.0,72,0.00,,,0.00,meteohub,2013-02-15 14:41:00,
2013-02-15 08:42:00,44.2,35.8,-100.00,NNE,21,6.0,18.0,72,0.00,,,0.00,meteohub,2013-02-15 14:42:00,
2013-02-15 08:43:00,44.2,35.8,-100.00,NNE,29,6.0,18.0,72,0.00,,,0.00,meteohub,2013-02-15 14:43:00,
2013-02-15 08:44:00,44.2,35.8,-100.00,NE,34,9.0,18.0,72,0.00,,,0.00,meteohub,2013-02-15 14:44:00,
2013-02-15 08:47:00,44.2,35.8,-100.00,NE,47,11.0,17.0,72,0.00,,,0.00,meteohub,2013-02-15 14:47:00,
2013-02-15 08:48:00,44.2,35.8,-100.00,NNE,28,6.0,17.0,72,0.00,,,0.00,meteohub,2013-02-15 14:48:00,
2013-02-15 08:49:00,44.2,35.8,-100.00,NE,38,7.0,17.0,72,0.00,,,0.00,meteohub,2013-02-15 14:49:00,
2013-02-15 08:52:00,44.2,35.8,-100.00,ENE,59,9.0,14.0,72,0.00,,,0.00,meteohub,2013-02-15 14:52:00,
2013-02-15 08:53:00,44.2,35.8,-100.00,NE,50,5.0,14.0,72,0.00,,,0.00,meteohub,2013-02-15 14:53:00,
2013-02-15 08:54:00,44.2,35.8,-100.00,NE,37,6.0,14.0,72,0.00,,,0.00,meteohub,2013-02-15 14:54:00,
2013-02-15 08:57:00,44.2,35.8,-100.00,NE,34,5.0,15.0,72,0.00,,,0.00,meteohub,2013-02-15 14:57:00,
2013-02-15 08:59:00,44.2,35.8,-100.00,NE,40,7.0,15.0,72,0.00,,,0.00,meteohub,2013-02-15 14:59:00,
2013-02-15 09:00:00,44.2,35.8,-100.00,NNE,21,10.0,15.0,72,0.00,,,0.00,meteohub,2013-02-15 15:00:00,
2013-02-15 09:03:00,44.2,35.8,-100.00,NNE,30,6.0,15.0,72,0.00,,,0.00,meteohub,2013-02-15 15:03:00,
2013-02-15 09:04:00,44.2,36.1,-100.00,NNE,27,5.0,15.0,73,0.00,,,0.00,meteohub,2013-02-15 15:04:00,
2013-02-15 09:05:00,44.2,36.1,-100.00,NE,38,13.0,15.0,73,0.00,,,0.00,meteohub,2013-02-15 15:05:00,
2013-02-15 09:09:00,44.2,35.8,-100.00,NE,36,8.0,14.0,72,0.00,,,0.00,meteohub,2013-02-15 15:09:00,
2013-02-15 09:10:00,44.4,36.0,-100.00,NNE,30,10.0,14.0,72,0.00,,,0.00,meteohub,2013-02-15 15:10:00,
2013-02-15 09:14:00,44.2,35.8,-100.00,NNE,21,6.0,15.0,72,0.00,,,0.00,meteohub,2013-02-15 15:14:00,
2013-02-15 09:15:00,44.2,35.8,-100.00,NE,36,6.0,15.0,72,0.00,,,0.00,meteohub,2013-02-15 15:15:00,
2013-02-15 09:16:00,44.2,35.8,-100.00,NNE,33,9.0,15.0,72,0.00,,,0.00,meteohub,2013-02-15 15:16:00,
2013-02-15 09:20:00,44.4,36.0,-100.00,NE,39,11.0,15.0,72,0.00,,,0.00,meteohub,2013-02-15 15:20:00,
2013-02-15 09:21:00,44.4,36.0,-100.00,NE,38,6.0,16.0,72,0.00,,,0.00,meteohub,2013-02-15 15:21:00,
2013-02-15 09:25:00,44.4,35.2,-100.00,NE,40,11.0,16.0,70,0.00,,,0.00,meteohub,2013-02-15 15:25:00,
2013-02-15 09:26:00,44.4,35.2,-100.00,NE,35,12.0,16.0,70,0.00,,,0.00,meteohub,2013-02-15 15:26:00,
2013-02-15 09:31:00,44.4,35.6,-100.00,NNE,29,9.0,16.0,71,0.00,,,0.00,meteohub,2013-02-15 15:31:00,
2013-02-15 09:36:00,44.4,35.6,-100.00,NE,50,12.0,16.0,71,0.00,,,0.00,meteohub,2013-02-15 15:36:00,
2013-02-15 09:37:00,44.4,35.6,-100.00,NE,43,10.0,16.0,71,0.00,,,0.00,meteohub,2013-02-15 15:37:00,
2013-02-15 09:41:00,44.4,35.2,-100.00,NE,36,3.0,14.0,70,0.00,,,0.00,meteohub,2013-02-15 15:41:00,
2013-02-15 09:42:00,44.4,35.2,-100.00,NNE,30,9.0,14.0,70,0.00,,,0.00,meteohub,2013-02-15 15:42:00,
2013-02-15 09:46:00,44.6,34.3,-100.00,NNE,24,10.0,18.0,67,0.00,,,0.00,meteohub,2013-02-15 15:46:00,
2013-02-15 09:47:00,44.6,34.3,-100.00,NNE,18,10.0,18.0,67,0.00,,,0.00,meteohub,2013-02-15 15:47:00,
2013-02-15 09:48:00,44.6,34.3,-100.00,NE,36,7.0,18.0,67,0.00,,,0.00,meteohub,2013-02-15 15:48:00,
2013-02-15 09:52:00,44.8,34.5,-100.00,NNE,26,7.0,18.0,67,0.00,,,0.00,meteohub,2013-02-15 15:52:00,
2013-02-15 09:53:00,44.8,34.5,-100.00,NE,38,7.0,18.0,67,0.00,,,0.00,meteohub,2013-02-15 15:53:00,
2013-02-15 09:57:00,45.0,34.0,-100.00,NNE,12,12.0,18.0,65,0.00,,,0.00,meteohub,2013-02-15 15:57:00,
2013-02-15 09:58:00,45.0,34.0,-100.00,NNE,28,5.0,18.0,65,0.00,,,0.00,meteohub,2013-02-15 15:58:00,
2013-02-15 10:02:00,45.1,33.6,-100.00,NNE,28,12.0,18.0,64,0.00,,,0.00,meteohub,2013-02-15 16:02:00,
2013-02-15 10:03:00,45.1,33.6,-100.00,NNE,13,6.0,18.0,64,0.00,,,0.00,meteohub,2013-02-15 16:03:00,
2013-02-15 10:08:00,45.1,34.2,-100.00,NNE,25,12.0,18.0,65,0.00,,,0.00,meteohub,2013-02-15 16:08:00,
2013-02-15 10:13:00,45.1,33.3,-100.00,NNE,22,13.0,18.0,63,0.00,,,0.00,meteohub,2013-02-15 16:13:00,
2013-02-15 10:14:00,45.1,33.3,-100.00,NNE,21,9.0,18.0,63,0.00,,,0.00,meteohub,2013-02-15 16:14:00,
2013-02-15 10:18:00,45.1,33.3,-100.00,NE,52,8.0,18.0,63,0.00,,,0.00,meteohub,2013-02-15 16:18:00,
2013-02-15 10:19:00,45.1,32.9,-100.00,NE,36,11.0,18.0,62,0.00,,,0.00,meteohub,2013-02-15 16:19:00,
2013-02-15 10:23:00,45.1,32.9,-100.00,NNE,21,14.0,18.0,62,0.00,,,0.00,meteohub,2013-02-15 16:23:00,
2013-02-15 10:24:00,45.1,32.5,-100.00,NNE,26,13.0,18.0,61,0.00,,,0.00,meteohub,2013-02-15 16:24:00,
2013-02-15 10:28:00,45.1,32.9,-100.00,NNE,18,11.0,17.0,62,0.00,,,0.00,meteohub,2013-02-15 16:28:00,
2013-02-15 10:29:00,45.1,32.5,-100.00,NNE,12,10.0,17.0,61,0.00,,,0.00,meteohub,2013-02-15 16:29:00,
2013-02-15 10:30:00,45.1,32.5,-100.00,North,10,13.0,17.0,61,0.00,,,0.00,meteohub,2013-02-15 16:30:00,
2013-02-15 10:33:00,45.1,32.5,-100.00,North,5,4.0,20.0,61,0.00,,,0.00,meteohub,2013-02-15 16:33:00,
2013-02-15 10:34:00,45.1,32.5,-100.00,NNE,25,12.0,20.0,61,0.00,,,0.00,meteohub,2013-02-15 16:34:00,
2013-02-15 10:35:00,45.1,32.0,-100.00,NE,37,12.0,20.0,60,0.00,,,0.00,meteohub,2013-02-15 16:35:00,
2013-02-15 10:38:00,45.1,32.5,-100.00,North,11,8.0,20.0,61,0.00,,,0.00,meteohub,2013-02-15 16:38:00,
2013-02-15 10:39:00,45.1,32.9,-100.00,NNE,13,9.0,20.0,62,0.00,,,0.00,meteohub,2013-02-15 16:39:00,
2013-02-15 10:40:00,45.1,32.9,-100.00,North,5,6.0,20.0,62,0.00,,,0.00,meteohub,2013-02-15 16:40:00,
2013-02-15 10:43:00,45.1,33.3,-100.00,NNE,22,4.0,20.0,63,0.00,,,0.00,meteohub,2013-02-15 16:43:00,
2013-02-15 10:44:00,45.1,33.3,-100.00,NNE,22,4.0,20.0,63,0.00,,,0.00,meteohub,2013-02-15 16:44:00,
2013-02-15 10:45:00,45.1,33.6,-100.00,NNE,28,6.0,20.0,64,0.00,,,0.00,meteohub,2013-02-15 16:45:00,
2013-02-15 10:48:00,45.3,33.1,-100.00,NNE,20,15.0,17.0,62,0.00,,,0.00,meteohub,2013-02-15 16:48:00,
2013-02-15 10:49:00,45.1,32.5,-100.00,NNE,23,9.0,17.0,61,0.00,,,0.00,meteohub,2013-02-15 16:49:00,
2013-02-15 10:50:00,45.1,32.0,-100.00,NNE,25,11.0,17.0,60,0.00,,,0.00,meteohub,2013-02-15 16:50:00,
2013-02-15 10:54:00,45.1,32.0,-100.00,North,5,10.0,16.0,60,0.00,,,0.00,meteohub,2013-02-15 16:54:00,
2013-02-15 10:55:00,45.1,31.6,-100.00,NNE,13,7.0,16.0,59,0.00,,,0.00,meteohub,2013-02-15 16:55:00,
2013-02-15 10:59:00,45.1,30.4,-100.00,North,10,11.0,17.0,56,0.00,,,0.00,meteohub,2013-02-15 16:59:00,
2013-02-15 11:00:00,45.0,30.2,-100.00,North,350,9.0,17.0,56,0.00,,,0.00,meteohub,2013-02-15 17:00:00,
2013-02-15 11:01:00,45.0,30.2,-100.00,NNE,19,12.0,17.0,56,0.00,,,0.00,meteohub,2013-02-15 17:01:00,
2013-02-15 11:04:00,45.0,28.4,-100.00,North,9,15.0,17.0,52,0.00,,,0.00,meteohub,2013-02-15 17:04:00,
2013-02-15 11:05:00,44.8,28.2,-100.00,NNE,24,15.0,17.0,52,0.00,,,0.00,meteohub,2013-02-15 17:05:00,
2013-02-15 11:06:00,44.8,27.7,-100.00,NE,34,13.0,19.0,51,0.00,,,0.00,meteohub,2013-02-15 17:06:00,
2013-02-15 11:09:00,45.0,28.9,-100.00,NNE,30,6.0,19.0,53,0.00,,,0.00,meteohub,2013-02-15 17:09:00,
2013-02-15 11:10:00,45.0,28.9,-100.00,NNE,28,7.0,19.0,53,0.00,,,0.00,meteohub,2013-02-15 17:10:00,
2013-02-15 11:11:00,45.0,28.9,-100.00,North,5,6.0,20.0,53,0.00,,,0.00,meteohub,2013-02-15 17:11:00,
2013-02-15 11:13:00,45.1,28.9,-100.00,North,10,7.0,20.0,53,0.00,,,0.00,meteohub,2013-02-15 17:13:00,
2013-02-15 11:15:00,45.1,28.9,-100.00,NNE,22,7.0,20.0,53,0.00,,,0.00,meteohub,2013-02-15 17:15:00,
2013-02-15 11:16:00,45.1,29.5,-100.00,NNE,30,13.0,20.0,54,0.00,,,0.00,meteohub,2013-02-15 17:16:00,
2013-02-15 11:18:00,45.1,28.0,-100.00,NNE,26,12.0,20.0,51,0.00,,,0.00,meteohub,2013-02-15 17:18:00,
2013-02-15 11:20:00,45.1,28.0,-100.00,NNE,30,5.0,20.0,51,0.00,,,0.00,meteohub,2013-02-15 17:20:00,
2013-02-15 11:21:00,45.1,28.9,-100.00,North,5,10.0,16.0,53,0.00,,,0.00,meteohub,2013-02-15 17:21:00,
2013-02-15 11:23:00,45.3,29.1,-100.00,NNE,27,12.0,16.0,53,0.00,,,0.00,meteohub,2013-02-15 17:23:00,
2013-02-15 11:25:00,45.5,28.9,-100.00,North,5,12.0,15.0,52,0.00,,,0.00,meteohub,2013-02-15 17:25:00,
2013-02-15 11:26:00,45.5,29.3,-100.00,NNE,17,6.0,15.0,53,0.00,,,0.00,meteohub,2013-02-15 17:26:00,
2013-02-15 11:29:00,45.7,30.4,-100.00,North,5,11.0,15.0,55,0.00,,,0.00,meteohub,2013-02-15 17:29:00,
2013-02-15 11:31:00,45.7,30.9,-100.00,NNE,16,9.0,18.0,56,0.00,,,0.00,meteohub,2013-02-15 17:31:00,
2013-02-15 11:32:00,45.7,30.9,-100.00,North,355,14.0,18.0,56,0.00,,,0.00,meteohub,2013-02-15 17:32:00,
2013-02-15 11:34:00,45.7,30.9,-100.00,North,9,10.0,18.0,56,0.00,,,0.00,meteohub,2013-02-15 17:34:00,
2013-02-15 11:36:00,45.5,30.2,-100.00,North,9,10.0,18.0,55,0.00,,,0.00,meteohub,2013-02-15 17:36:00,
2013-02-15 11:37:00,45.5,30.2,-100.00,North,5,10.0,18.0,55,0.00,,,0.00,meteohub,2013-02-15 17:37:00,
2013-02-15 11:39:00,45.5,29.8,-100.00,North,350,12.0,18.0,54,0.00,,,0.00,meteohub,2013-02-15 17:39:00,
2013-02-15 11:42:00,45.5,29.8,-100.00,NNW,345,13.0,16.0,54,0.00,,,0.00,meteohub,2013-02-15 17:42:00,
2013-02-15 11:44:00,45.3,28.8,-100.00,NNW,348,15.0,16.0,52,0.00,,,0.00,meteohub,2013-02-15 17:44:00,
2013-02-15 11:47:00,45.3,29.1,-100.00,NNE,29,10.0,19.0,53,0.00,,,0.00,meteohub,2013-02-15 17:47:00,
2013-02-15 11:49:00,45.3,29.1,-100.00,North,10,11.0,19.0,53,0.00,,,0.00,meteohub,2013-02-15 17:49:00,
2013-02-15 11:52:00,45.5,27.9,-100.00,North,11,11.0,19.0,50,0.00,,,0.00,meteohub,2013-02-15 17:52:00,
2013-02-15 11:53:00,45.5,28.4,-100.00,NNE,22,11.0,19.0,51,0.00,,,0.00,meteohub,2013-02-15 17:53:00,
2013-02-15 11:55:00,45.5,27.9,-100.00,North,5,14.0,19.0,50,0.00,,,0.00,meteohub,2013-02-15 17:55:00,
2013-02-15 11:57:00,45.7,26.1,-100.00,NE,38,8.0,19.0,46,0.00,,,0.00,meteohub,2013-02-15 17:57:00,
2013-02-15 11:58:00,45.7,27.1,-100.00,NNE,28,8.0,19.0,48,0.00,,,0.00,meteohub,2013-02-15 17:58:00,
2013-02-15 11:59:00,45.7,27.1,-100.00,NNE,23,9.0,19.0,48,0.00,,,0.00,meteohub,2013-02-15 17:59:00,
2013-02-15 12:00:00,45.7,26.6,-100.00,NNE,13,11.0,19.0,47,0.00,,,0.00,meteohub,2013-02-15 18:00:00,
2013-02-15 12:02:00,45.5,24.8,-100.00,NNE,20,13.0,18.0,44,0.00,,,0.00,meteohub,2013-02-15 18:02:00,
2013-02-15 12:03:00,45.5,25.3,-100.00,NNE,14,7.0,18.0,45,0.00,,,0.00,meteohub,2013-02-15 18:03:00,
2013-02-15 12:04:00,45.5,25.9,-100.00,NNE,19,12.0,18.0,46,0.00,,,0.00,meteohub,2013-02-15 18:04:00,
2013-02-15 12:05:00,45.5,25.3,-100.00,NNE,15,8.0,18.0,45,0.00,,,0.00,meteohub,2013-02-15 18:05:00,
2013-02-15 12:07:00,45.5,25.9,-100.00,NNE,32,11.0,19.0,46,0.00,,,0.00,meteohub,2013-02-15 18:07:00,
2013-02-15 12:08:00,45.5,25.3,-100.00,NNE,15,14.0,19.0,45,0.00,,,0.00,meteohub,2013-02-15 18:08:00,
2013-02-15 12:09:00,45.5,25.9,-100.00,NNE,14,11.0,19.0,46,0.00,,,0.00,meteohub,2013-02-15 18:09:00,
2013-02-15 12:10:00,45.5,25.9,-100.00,NNE,13,13.0,19.0,46,0.00,,,0.00,meteohub,2013-02-15 18:10:00,
2013-02-15 12:13:00,45.7,28.0,-100.00,NNE,17,9.0,19.0,50,0.00,,,0.00,meteohub,2013-02-15 18:13:00,
2013-02-15 12:14:00,45.7,27.1,-100.00,NNE,15,15.0,19.0,48,0.00,,,0.00,meteohub,2013-02-15 18:14:00,
2013-02-15 12:15:00,45.7,26.6,-100.00,North,355,9.0,19.0,47,0.00,,,0.00,meteohub,2013-02-15 18:15:00,
2013-02-15 12:18:00,45.9,27.3,-100.00,North,5,14.0,16.0,48,0.00,,,0.00,meteohub,2013-02-15 18:18:00,
2013-02-15 12:19:00,45.7,26.6,-100.00,North,10,8.0,16.0,47,0.00,,,0.00,meteohub,2013-02-15 18:19:00,
2013-02-15 12:20:00,45.9,27.9,-100.00,North,0,8.0,16.0,49,0.00,,,0.00,meteohub,2013-02-15 18:20:00,
2013-02-15 12:23:00,45.9,26.8,-100.00,NE,34,9.0,18.0,47,0.00,,,0.00,meteohub,2013-02-15 18:23:00,
2013-02-15 12:24:00,45.9,27.9,-100.00,North,11,9.0,18.0,49,0.00,,,0.00,meteohub,2013-02-15 18:24:00,
2013-02-15 12:26:00,46.0,27.9,-100.00,NNE,19,11.0,18.0,49,0.00,,,0.00,meteohub,2013-02-15 18:26:00,
2013-02-15 12:27:00,46.0,27.0,-100.00,NNE,19,11.0,18.0,47,0.00,,,0.00,meteohub,2013-02-15 18:27:00,
2013-02-15 12:29:00,46.0,25.9,-100.00,NNE,31,9.0,18.0,45,0.00,,,0.00,meteohub,2013-02-15 18:29:00,
2013-02-15 12:31:00,46.2,26.6,-100.00,North,0,11.0,18.0,46,0.00,,,0.00,meteohub,2013-02-15 18:31:00,
2013-02-15 12:32:00,46.4,26.8,-100.00,NNE,17,7.0,18.0,46,0.00,,,0.00,meteohub,2013-02-15 18:32:00,
2013-02-15 12:34:00,46.4,26.2,-100.00,North,5,9.0,18.0,45,0.00,,,0.00,meteohub,2013-02-15 18:34:00,
2013-02-15 12:35:00,46.4,26.2,-100.00,North,355,14.0,18.0,45,0.00,,,0.00,meteohub,2013-02-15 18:35:00,
2013-02-15 12:36:00,46.6,25.9,-100.00,North,5,14.0,17.0,44,0.00,,,0.00,meteohub,2013-02-15 18:36:00,
2013-02-15 12:37:00,46.6,25.9,-100.00,North,0,11.0,17.0,44,0.00,,,0.00,meteohub,2013-02-15 18:37:00,
2013-02-15 12:40:00,46.8,26.1,-100.00,North,355,10.0,17.0,44,0.00,,,0.00,meteohub,2013-02-15 18:40:00,
2013-02-15 12:41:00,46.8,26.6,-100.00,North,5,11.0,17.0,45,0.00,,,0.00,meteohub,2013-02-15 18:41:00,
2013-02-15 12:42:00,46.8,27.1,-100.00,North,355,14.0,17.0,46,0.00,,,0.00,meteohub,2013-02-15 18:42:00,
2013-02-15 12:45:00,46.8,24.8,-100.00,NNE,22,15.0,17.0,42,0.00,,,0.00,meteohub,2013-02-15 18:45:00,
2013-02-15 12:46:00,46.8,25.5,-100.00,NNE,17,13.0,18.0,43,0.00,,,0.00,meteohub,2013-02-15 18:46:00,
2013-02-15 12:47:00,46.8,26.1,-100.00,North,355,13.0,18.0,44,0.00,,,0.00,meteohub,2013-02-15 18:47:00,
2013-02-15 12:50:00,46.8,26.1,-100.00,NNE,28,11.0,18.0,44,0.00,,,0.00,meteohub,2013-02-15 18:50:00,
2013-02-15 12:51:00,46.8,26.1,-100.00,NE,36,16.0,18.0,44,0.00,,,0.00,meteohub,2013-02-15 18:51:00,
2013-02-15 12:52:00,46.8,26.1,-100.00,North,11,10.0,18.0,44,0.00,,,0.00,meteohub,2013-02-15 18:52:00,
2013-02-15 12:55:00,46.8,25.5,-100.00,North,5,14.0,18.0,43,0.00,,,0.00,meteohub,2013-02-15 18:55:00,
2013-02-15 12:56:00,46.8,25.5,-100.00,North,0,15.0,18.0,43,0.00,,,0.00,meteohub,2013-02-15 18:56:00,
2013-02-15 12:57:00,46.8,26.1,-100.00,NNW,342,12.0,18.0,44,0.00,,,0.00,meteohub,2013-02-15 18:57:00,
2013-02-15 12:58:00,46.8,26.6,-100.00,North,355,15.0,18.0,45,0.00,,,0.00,meteohub,2013-02-15 18:58:00,
2013-02-15 13:01:00,46.8,24.8,-100.00,North,9,6.0,17.0,42,0.00,,,0.00,meteohub,2013-02-15 19:01:00,
2013-02-15 13:02:00,46.9,25.5,-100.00,NNE,26,9.0,17.0,43,0.00,,,0.00,meteohub,2013-02-15 19:02:00,
2013-02-15 13:03:00,46.9,25.5,-100.00,North,0,11.0,17.0,43,0.00,,,0.00,meteohub,2013-02-15 19:03:00,
2013-02-15 13:06:00,47.1,26.8,-100.00,NNE,12,12.0,17.0,45,0.00,,,0.00,meteohub,2013-02-15 19:06:00,
2013-02-15 13:07:00,47.1,25.2,-100.00,NNE,30,12.0,17.0,42,0.00,,,0.00,meteohub,2013-02-15 19:07:00,
2013-02-15 13:08:00,47.1,26.8,-100.00,NNE,13,11.0,17.0,45,0.00,,,0.00,meteohub,2013-02-15 19:08:00,
2013-02-15 13:11:00,47.1,25.7,-100.00,NNE,25,5.0,17.0,43,0.00,,,0.00,meteohub,2013-02-15 19:11:00,
2013-02-15 13:12:00,47.1,26.2,-100.00,NNE,26,5.0,17.0,44,0.00,,,0.00,meteohub,2013-02-15 19:12:00,
2013-02-15 13:13:00,47.3,25.9,-100.00,NNE,19,9.0,17.0,43,0.00,,,0.00,meteohub,2013-02-15 19:13:00,
2013-02-15 13:14:00,47.3,25.9,-100.00,North,0,11.0,17.0,43,0.00,,,0.00,meteohub,2013-02-15 19:14:00,
2013-02-15 13:16:00,47.3,25.3,-100.00,North,0,11.0,17.0,42,0.00,,,0.00,meteohub,2013-02-15 19:16:00,
2013-02-15 13:17:00,47.3,26.4,-100.00,North,5,6.0,17.0,44,0.00,,,0.00,meteohub,2013-02-15 19:17:00,
2013-02-15 13:18:00,47.5,26.1,-100.00,North,5,7.0,17.0,43,0.00,,,0.00,meteohub,2013-02-15 19:18:00,
2013-02-15 13:19:00,47.5,26.1,-100.00,NNE,24,16.0,17.0,43,0.00,,,0.00,meteohub,2013-02-15 19:19:00,
2013-02-15 13:22:00,47.3,24.8,-100.00,NNE,17,10.0,17.0,41,0.00,,,0.00,meteohub,2013-02-15 19:22:00,
2013-02-15 13:23:00,47.1,24.6,-100.00,North,11,13.0,17.0,41,0.00,,,0.00,meteohub,2013-02-15 19:23:00,
2013-02-15 13:24:00,47.1,24.6,-100.00,NE,42,10.0,17.0,41,0.00,,,0.00,meteohub,2013-02-15 19:24:00,
2013-02-15 13:27:00,46.9,23.2,-100.00,NNE,15,14.0,19.0,39,0.00,,,0.00,meteohub,2013-02-15 19:27:00,
2013-02-15 13:28:00,46.9,23.2,-100.00,NE,50,6.0,19.0,39,0.00,,,0.00,meteohub,2013-02-15 19:28:00,
2013-02-15 13:30:00,47.1,24.1,-100.00,North,11,14.0,19.0,40,0.00,,,0.00,meteohub,2013-02-15 19:30:00,
2013-02-15 13:32:00,47.3,24.3,-100.00,North,0,13.0,19.0,40,0.00,,,0.00,meteohub,2013-02-15 19:32:00,
2013-02-15 13:34:00,47.3,24.3,-100.00,NE,34,10.0,19.0,40,0.00,,,0.00,meteohub,2013-02-15 19:34:00,
2013-02-15 13:35:00,47.3,24.3,-100.00,North,9,8.0,19.0,40,0.00,,,0.00,meteohub,2013-02-15 19:35:00,
2013-02-15 13:37:00,47.3,25.3,-100.00,NNW,345,10.0,19.0,42,0.00,,,0.00,meteohub,2013-02-15 19:37:00,
2013-02-15 13:38:00,47.5,25.5,-100.00,North,355,13.0,19.0,42,0.00,,,0.00,meteohub,2013-02-15 19:38:00,
2013-02-15 13:39:00,47.5,25.0,-100.00,North,0,11.0,19.0,41,0.00,,,0.00,meteohub,2013-02-15 19:39:00,
2013-02-15 13:40:00,47.7,25.7,-100.00,North,0,15.0,19.0,42,0.00,,,0.00,meteohub,2013-02-15 19:40:00,
2013-02-15 13:42:00,47.7,25.2,-100.00,North,5,9.0,19.0,41,0.00,,,0.00,meteohub,2013-02-15 19:42:00,
2013-02-15 13:43:00,47.7,25.2,-100.00,North,5,8.0,19.0,41,0.00,,,0.00,meteohub,2013-02-15 19:43:00,
2013-02-15 13:44:00,47.7,24.4,-100.00,North,355,12.0,19.0,40,0.00,,,0.00,meteohub,2013-02-15 19:44:00,
2013-02-15 13:45:00,47.7,25.2,-100.00,North,5,10.0,19.0,41,0.00,,,0.00,meteohub,2013-02-15 19:45:00,
2013-02-15 13:48:00,47.7,23.9,-100.00,North,350,12.0,19.0,39,0.00,,,0.00,meteohub,2013-02-15 19:48:00,
2013-02-15 13:49:00,47.7,23.9,-100.00,North,5,12.0,19.0,39,0.00,,,0.00,meteohub,2013-02-15 19:49:00,
2013-02-15 13:51:00,47.7,23.4,-100.00,NNE,22,12.0,19.0,38,0.00,,,0.00,meteohub,2013-02-15 19:51:00,
2013-02-15 13:53:00,47.7,23.4,-100.00,North,11,12.0,19.0,38,0.00,,,0.00,meteohub,2013-02-15 19:53:00,
2013-02-15 13:54:00,47.7,24.4,-100.00,North,0,10.0,19.0,40,0.00,,,0.00,meteohub,2013-02-15 19:54:00,
2013-02-15 13:56:00,47.7,23.9,-100.00,North,5,11.0,18.0,39,0.00,,,0.00,meteohub,2013-02-15 19:56:00,
2013-02-15 13:58:00,47.8,24.6,-100.00,North,355,9.0,18.0,40,0.00,,,0.00,meteohub,2013-02-15 19:58:00,
2013-02-15 13:59:00,48.0,24.8,-100.00,North,0,11.0,18.0,40,0.00,,,0.00,meteohub,2013-02-15 19:59:00,
2013-02-15 14:01:00,48.0,23.5,-100.00,NNE,17,6.0,18.0,38,0.00,,,0.00,meteohub,2013-02-15 20:01:00,
2013-02-15 14:04:00,48.2,26.2,-100.00,North,11,8.0,18.0,42,0.00,,,0.00,meteohub,2013-02-15 20:04:00,
2013-02-15 14:06:00,48.4,25.2,-100.00,North,0,11.0,18.0,40,0.00,,,0.00,meteohub,2013-02-15 20:06:00,
2013-02-15 14:09:00,48.6,25.3,-100.00,North,10,4.0,18.0,40,0.00,,,0.00,meteohub,2013-02-15 20:09:00,
2013-02-15 14:10:00,48.6,25.3,-100.00,NE,44,10.0,18.0,40,0.00,,,0.00,meteohub,2013-02-15 20:10:00,
2013-02-15 14:12:00,48.6,24.8,-100.00,NNE,13,11.0,14.0,39,0.00,,,0.00,meteohub,2013-02-15 20:12:00,
2013-02-15 14:14:00,48.6,23.5,-100.00,NNE,28,9.0,14.0,37,0.00,,,0.00,meteohub,2013-02-15 20:14:00,
2013-02-15 14:15:00,48.6,22.1,-100.00,NNE,19,8.0,14.0,35,0.00,,,0.00,meteohub,2013-02-15 20:15:00,
2013-02-15 14:17:00,48.6,21.4,-100.00,North,0,13.0,15.0,34,0.00,,,0.00,meteohub,2013-02-15 20:17:00,
2013-02-15 14:20:00,48.6,21.4,-100.00,NNE,15,6.0,15.0,34,0.00,,,0.00,meteohub,2013-02-15 20:20:00,
2013-02-15 14:21:00,48.6,22.1,-100.00,NNE,22,11.0,15.0,35,0.00,,,0.00,meteohub,2013-02-15 20:21:00,
2013-02-15 14:23:00,48.7,22.3,-100.00,North,355,11.0,15.0,35,0.00,,,0.00,meteohub,2013-02-15 20:23:00,
2013-02-15 14:25:00,48.7,23.0,-100.00,North,350,13.0,15.0,36,0.00,,,0.00,meteohub,2013-02-15 20:25:00,
2013-02-15 14:26:00,48.7,23.0,-100.00,North,5,8.0,16.0,36,0.00,,,0.00,meteohub,2013-02-15 20:26:00,
2013-02-15 14:28:00,48.7,23.5,-100.00,North,0,12.0,16.0,37,0.00,,,0.00,meteohub,2013-02-15 20:28:00,
2013-02-15 14:30:00,48.9,23.7,-100.00,North,0,7.0,16.0,37,0.00,,,0.00,meteohub,2013-02-15 20:30:00,
2013-02-15 14:31:00,48.9,24.4,-100.00,NE,42,7.0,16.0,38,0.00,,,0.00,meteohub,2013-02-15 20:31:00,
2013-02-15 14:34:00,49.1,23.4,-100.00,NNE,13,9.0,16.0,36,0.00,,,0.00,meteohub,2013-02-15 20:34:00,
2013-02-15 14:35:00,49.3,23.5,-100.00,NNE,16,9.0,17.0,36,0.00,,,0.00,meteohub,2013-02-15 20:35:00,
2013-02-15 14:36:00,49.3,22.8,-100.00,NNE,19,3.0,17.0,35,0.00,,,0.00,meteohub,2013-02-15 20:36:00,
2013-02-15 14:39:00,49.5,20.8,-100.00,NNE,22,12.0,17.0,32,0.00,,,0.00,meteohub,2013-02-15 20:39:00,
2013-02-15 14:41:00,49.5,21.6,-100.00,NNE,27,10.0,17.0,33,0.00,,,0.00,meteohub,2013-02-15 20:41:00,
2013-02-15 14:44:00,49.3,21.4,-100.00,NNE,26,6.0,17.0,33,0.00,,,0.00,meteohub,2013-02-15 20:44:00,
2013-02-15 14:46:00,49.3,22.1,-100.00,North,350,14.0,16.0,34,0.00,,,0.00,meteohub,2013-02-15 20:46:00,
2013-02-15 14:47:00,49.3,21.4,-100.00,North,5,16.0,16.0,33,0.00,,,0.00,meteohub,2013-02-15 20:47:00,
2013-02-15 14:49:00,49.5,21.6,-100.00,NNE,32,16.0,16.0,33,0.00,,,0.00,meteohub,2013-02-15 20:49:00,
2013-02-15 14:52:00,49.5,23.0,-100.00,North,10,10.0,18.0,35,0.00,,,0.00,meteohub,2013-02-15 20:52:00,
2013-02-15 14:54:00,49.5,21.6,-100.00,NNE,19,15.0,18.0,33,0.00,,,0.00,meteohub,2013-02-15 20:54:00,
2013-02-15 14:57:00,49.3,21.4,-100.00,North,355,14.0,21.0,33,0.00,,,0.00,meteohub,2013-02-15 20:57:00,
2013-02-15 14:59:00,49.3,22.8,-100.00,NNE,12,9.0,21.0,35,0.00,,,0.00,meteohub,2013-02-15 20:59:00,
2013-02-15 15:02:00,49.3,22.1,-100.00,North,11,10.0,21.0,34,0.00,,,0.00,meteohub,2013-02-15 21:02:00,
2013-02-15 15:03:00,49.1,19.8,-100.00,NNE,19,11.0,21.0,31,0.00,,,0.00,meteohub,2013-02-15 21:03:00,
2013-02-15 15:05:00,49.1,19.8,-100.00,NE,44,9.0,21.0,31,0.00,,,0.00,meteohub,2013-02-15 21:05:00,
2013-02-15 15:07:00,49.1,20.5,-100.00,North,355,14.0,21.0,32,0.00,,,0.00,meteohub,2013-02-15 21:07:00,
2013-02-15 15:08:00,49.1,20.5,-100.00,North,5,7.0,21.0,32,0.00,,,0.00,meteohub,2013-02-15 21:08:00,
2013-02-15 15:09:00,48.9,19.6,-100.00,NNE,19,6.0,21.0,31,0.00,,,0.00,meteohub,2013-02-15 21:09:00,
2013-02-15 15:10:00,49.1,19.8,-100.00,NNE,16,6.0,21.0,31,0.00,,,0.00,meteohub,2013-02-15 21:10:00,
2013-02-15 15:12:00,49.1,19.8,-100.00,NNE,13,7.0,18.0,31,0.00,,,0.00,meteohub,2013-02-15 21:12:00,
2013-02-15 15:13:00,49.1,19.8,-100.00,NNE,13,8.0,18.0,31,0.00,,,0.00,meteohub,2013-02-15 21:13:00,
2013-02-15 15:14:00,49.1,21.2,-100.00,NNE,26,4.0,18.0,33,0.00,,,0.00,meteohub,2013-02-15 21:14:00,
2013-02-15 15:15:00,49.3,20.7,-100.00,North,9,12.0,18.0,32,0.00,,,0.00,meteohub,2013-02-15 21:15:00,
2013-02-15 15:18:00,49.5,21.6,-100.00,NNE,16,5.0,18.0,33,0.00,,,0.00,meteohub,2013-02-15 21:18:00,
2013-02-15 15:19:00,49.5,22.3,-100.00,NNE,16,6.0,18.0,34,0.00,,,0.00,meteohub,2013-02-15 21:19:00,
2013-02-15 15:20:00,49.5,23.0,-100.00,NNW,346,13.0,18.0,35,0.00,,,0.00,meteohub,2013-02-15 21:20:00,
2013-02-15 15:24:00,49.5,20.8,-100.00,NNE,22,7.0,16.0,32,0.00,,,0.00,meteohub,2013-02-15 21:24:00,
2013-02-15 15:25:00,49.5,20.8,-100.00,North,11,11.0,16.0,32,0.00,,,0.00,meteohub,2013-02-15 21:25:00,
2013-02-15 15:26:00,49.5,20.1,-100.00,North,10,10.0,16.0,31,0.00,,,0.00,meteohub,2013-02-15 21:26:00,
2013-02-15 15:29:00,49.5,21.6,-100.00,North,0,12.0,16.0,33,0.00,,,0.00,meteohub,2013-02-15 21:29:00,
2013-02-15 15:30:00,49.5,21.6,-100.00,NNE,13,9.0,16.0,33,0.00,,,0.00,meteohub,2013-02-15 21:30:00,
2013-02-15 15:31:00,49.6,22.5,-100.00,North,5,11.0,19.0,34,0.00,,,0.00,meteohub,2013-02-15 21:31:00,
2013-02-15 15:35:00,49.8,20.3,-100.00,North,355,13.0,19.0,31,0.00,,,0.00,meteohub,2013-02-15 21:35:00,
2013-02-15 15:36:00,49.8,21.2,-100.00,North,351,8.0,19.0,32,0.00,,,0.00,meteohub,2013-02-15 21:36:00,
2013-02-15 15:40:00,49.8,20.3,-100.00,North,355,13.0,17.0,31,0.00,,,0.00,meteohub,2013-02-15 21:40:00,
2013-02-15 15:41:00,49.8,18.9,-100.00,NNW,348,10.0,17.0,29,0.00,,,0.00,meteohub,2013-02-15 21:41:00,
2013-02-15 15:42:00,49.8,19.6,-100.00,North,355,9.0,17.0,30,0.00,,,0.00,meteohub,2013-02-15 21:42:00,
2013-02-15 15:43:00,49.8,18.0,-100.00,North,0,5.0,17.0,28,0.00,,,0.00,meteohub,2013-02-15 21:43:00,
2013-02-15 15:45:00,49.8,19.6,-100.00,NNE,21,12.0,17.0,30,0.00,,,0.00,meteohub,2013-02-15 21:45:00,
2013-02-15 15:46:00,49.8,18.9,-100.00,North,11,6.0,17.0,29,0.00,,,0.00,meteohub,2013-02-15 21:46:00,
2013-02-15 15:47:00,49.8,19.6,-100.00,NNE,23,10.0,17.0,30,0.00,,,0.00,meteohub,2013-02-15 21:47:00,
2013-02-15 15:49:00,49.8,19.6,-100.00,NNE,25,9.0,17.0,30,0.00,,,0.00,meteohub,2013-02-15 21:49:00,
2013-02-15 15:51:00,49.8,18.9,-100.00,NNE,16,11.0,17.0,29,0.00,,,0.00,meteohub,2013-02-15 21:51:00,
2013-02-15 15:52:00,49.8,18.9,-100.00,NNE,20,17.0,17.0,29,0.00,,,0.00,meteohub,2013-02-15 21:52:00,
2013-02-15 15:54:00,49.8,20.3,-100.00,North,5,9.0,17.0,31,0.00,,,0.00,meteohub,2013-02-15 21:54:00,
2013-02-15 15:56:00,50.2,20.7,-100.00,North,355,13.0,17.0,31,0.00,,,0.00,meteohub,2013-02-15 21:56:00,
2013-02-15 15:57:00,50.2,20.7,-100.00,North,0,6.0,17.0,31,0.00,,,0.00,meteohub,2013-02-15 21:57:00,
2013-02-15 15:59:00,50.2,19.9,-100.00,North,9,10.0,17.0,30,0.00,,,0.00,meteohub,2013-02-15 21:59:00,
2013-02-15 16:02:00,50.2,19.9,-100.00,North,5,12.0,17.0,30,0.00,,,0.00,meteohub,2013-02-15 22:02:00,
2013-02-15 16:03:00,50.2,19.9,-100.00,North,11,6.0,17.0,30,0.00,,,0.00,meteohub,2013-02-15 22:03:00,
2013-02-15 16:05:00,50.2,19.9,-100.00,NNE,18,12.0,17.0,30,0.00,,,0.00,meteohub,2013-02-15 22:05:00,
2013-02-15 16:07:00,50.2,19.2,-100.00,North,0,7.0,17.0,29,0.00,,,0.00,meteohub,2013-02-15 22:07:00,
2013-02-15 16:08:00,50.2,19.2,-100.00,North,355,6.0,17.0,29,0.00,,,0.00,meteohub,2013-02-15 22:08:00,
2013-02-15 16:10:00,49.8,19.6,-100.00,North,5,10.0,17.0,30,0.00,,,0.00,meteohub,2013-02-15 22:10:00,
2013-02-15 16:12:00,49.8,18.9,-100.00,North,355,7.0,17.0,29,0.00,,,0.00,meteohub,2013-02-15 22:12:00,
2013-02-15 16:13:00,49.8,19.6,-100.00,North,355,7.0,17.0,30,0.00,,,0.00,meteohub,2013-02-15 22:13:00,
2013-02-15 16:15:00,49.8,20.3,-100.00,North,5,10.0,17.0,31,0.00,,,0.00,meteohub,2013-02-15 22:15:00,
2013-02-15 16:17:00,49.6,18.7,-100.00,North,9,6.0,17.0,29,0.00,,,0.00,meteohub,2013-02-15 22:17:00,
2013-02-15 16:18:00,49.6,18.7,-100.00,NNE,18,5.0,17.0,29,0.00,,,0.00,meteohub,2013-02-15 22:18:00,
2013-02-15 16:21:00,49.5,18.5,-100.00,NNW,337,12.0,16.0,29,0.00,,,0.00,meteohub,2013-02-15 22:21:00,
2013-02-15 16:22:00,49.5,17.8,-100.00,NNW,343,13.0,16.0,28,0.00,,,0.00,meteohub,2013-02-15 22:22:00,
2013-02-15 16:23:00,49.5,17.8,-100.00,North,9,10.0,16.0,28,0.00,,,0.00,meteohub,2013-02-15 22:23:00,
2013-02-15 16:24:00,49.5,17.8,-100.00,North,0,5.0,16.0,28,0.00,,,0.00,meteohub,2013-02-15 22:24:00,
2013-02-15 16:26:00,49.5,16.9,-100.00,North,355,13.0,21.0,27,0.00,,,0.00,meteohub,2013-02-15 22:26:00,
2013-02-15 16:27:00,49.3,17.6,-100.00,North,5,10.0,21.0,28,0.00,,,0.00,meteohub,2013-02-15 22:27:00,
2013-02-15 16:28:00,49.3,17.6,-100.00,NNE,14,9.0,21.0,28,0.00,,,0.00,meteohub,2013-02-15 22:28:00,
2013-02-15 16:29:00,49.3,18.3,-100.00,NNE,31,16.0,21.0,29,0.00,,,0.00,meteohub,2013-02-15 22:29:00,
2013-02-15 16:32:00,49.1,17.4,-100.00,NNE,15,9.0,21.0,28,0.00,,,0.00,meteohub,2013-02-15 22:32:00,
2013-02-15 16:33:00,49.1,17.4,-100.00,North,5,12.0,21.0,28,0.00,,,0.00,meteohub,2013-02-15 22:33:00,
2013-02-15 16:34:00,49.1,19.0,-100.00,NNE,33,7.0,21.0,30,0.00,,,0.00,meteohub,2013-02-15 22:34:00,
2013-02-15 16:37:00,49.1,17.4,-100.00,NNE,28,10.0,21.0,28,0.00,,,0.00,meteohub,2013-02-15 22:37:00,
2013-02-15 16:39:00,49.1,19.8,-100.00,North,9,7.0,21.0,31,0.00,,,0.00,meteohub,2013-02-15 22:39:00,
2013-02-15 16:42:00,49.3,19.2,-100.00,North,0,6.0,18.0,30,0.00,,,0.00,meteohub,2013-02-15 22:42:00,
2013-02-15 16:43:00,49.3,19.2,-100.00,North,355,17.0,18.0,30,0.00,,,0.00,meteohub,2013-02-15 22:43:00,
2013-02-15 16:44:00,49.3,19.2,-100.00,North,350,9.0,18.0,30,0.00,,,0.00,meteohub,2013-02-15 22:44:00,
2013-02-15 16:45:00,49.1,19.0,-100.00,North,355,14.0,18.0,30,0.00,,,0.00,meteohub,2013-02-15 22:45:00,
2013-02-15 16:47:00,48.9,20.3,-100.00,North,0,10.0,17.0,32,0.00,,,0.00,meteohub,2013-02-15 22:47:00,
2013-02-15 16:48:00,48.7,19.4,-100.00,North,355,13.0,17.0,31,0.00,,,0.00,meteohub,2013-02-15 22:48:00,
2013-02-15 16:49:00,48.6,19.9,-100.00,North,5,12.0,17.0,32,0.00,,,0.00,meteohub,2013-02-15 22:49:00,
2013-02-15 16:51:00,48.6,19.2,-100.00,North,355,12.0,18.0,31,0.00,,,0.00,meteohub,2013-02-15 22:51:00,
2013-02-15 16:53:00,48.4,19.0,-100.00,NNE,13,14.0,18.0,31,0.00,,,0.00,meteohub,2013-02-15 22:53:00,
2013-02-15 16:54:00,48.4,19.0,-100.00,North,5,9.0,18.0,31,0.00,,,0.00,meteohub,2013-02-15 22:54:00,
2013-02-15 16:56:00,48.2,19.8,-100.00,NNE,19,14.0,21.0,32,0.00,,,0.00,meteohub,2013-02-15 22:56:00,
2013-02-15 16:59:00,48.0,18.9,-100.00,North,5,17.0,21.0,31,0.00,,,0.00,meteohub,2013-02-15 22:59:00,
2013-02-15 17:00:00,48.0,18.9,-100.00,North,355,19.0,21.0,31,0.00,,,0.00,meteohub,2013-02-15 23:00:00,
2013-02-15 17:01:00,47.8,18.0,-100.00,North,349,15.0,21.0,30,0.00,,,0.00,meteohub,2013-02-15 23:01:00,
2013-02-15 17:04:00,47.8,18.7,-100.00,North,5,12.0,21.0,31,0.00,,,0.00,meteohub,2013-02-15 23:04:00,
2013-02-15 17:05:00,47.8,18.0,-100.00,North,355,15.0,21.0,30,0.00,,,0.00,meteohub,2013-02-15 23:05:00,
2013-02-15 17:06:00,47.8,18.0,-100.00,NNW,344,12.0,21.0,30,0.00,,,0.00,meteohub,2013-02-15 23:06:00,
2013-02-15 17:09:00,47.7,16.2,-100.00,NNE,13,16.0,21.0,28,0.00,,,0.00,meteohub,2013-02-15 23:09:00,
2013-02-15 17:10:00,47.7,16.2,-100.00,North,355,14.0,21.0,28,0.00,,,0.00,meteohub,2013-02-15 23:10:00,
2013-02-15 17:11:00,47.7,16.2,-100.00,NNE,19,7.0,21.0,28,0.00,,,0.00,meteohub,2013-02-15 23:11:00,
2013-02-15 17:14:00,47.5,16.0,-100.00,North,355,15.0,21.0,28,0.00,,,0.00,meteohub,2013-02-15 23:14:00,
2013-02-15 17:15:00,47.3,15.1,-100.00,North,355,13.0,19.0,27,0.00,,,0.00,meteohub,2013-02-15 23:15:00,
2013-02-15 17:16:00,47.3,15.1,-100.00,North,349,11.0,19.0,27,0.00,,,0.00,meteohub,2013-02-15 23:16:00,
2013-02-15 17:20:00,47.1,15.6,-100.00,NNE,27,9.0,19.0,28,0.00,,,0.00,meteohub,2013-02-15 23:20:00,
2013-02-15 17:21:00,47.1,14.9,-100.00,North,351,16.0,19.0,27,0.00,,,0.00,meteohub,2013-02-15 23:21:00,
2013-02-15 17:22:00,47.1,16.5,-100.00,North,349,13.0,19.0,29,0.00,,,0.00,meteohub,2013-02-15 23:22:00,
2013-02-15 17:25:00,47.1,16.5,-100.00,North,0,11.0,19.0,29,0.00,,,0.00,meteohub,2013-02-15 23:25:00,
2013-02-15 17:26:00,46.9,17.8,-100.00,NNE,13,14.0,19.0,31,0.00,,,0.00,meteohub,2013-02-15 23:26:00,
2013-02-15 17:27:00,46.9,17.1,-100.00,North,355,15.0,19.0,30,0.00,,,0.00,meteohub,2013-02-15 23:27:00,
2013-02-15 17:30:00,46.8,17.8,-100.00,North,355,10.0,18.0,31,0.00,,,0.00,meteohub,2013-02-15 23:30:00,
2013-02-15 17:31:00,46.8,17.8,-100.00,North,5,10.0,18.0,31,0.00,,,0.00,meteohub,2013-02-15 23:31:00,
2013-02-15 17:33:00,46.8,17.8,-100.00,North,0,6.0,18.0,31,0.00,,,0.00,meteohub,2013-02-15 23:33:00,
2013-02-15 17:36:00,46.6,19.0,-100.00,North,355,14.0,18.0,33,0.00,,,0.00,meteohub,2013-02-15 23:36:00,
2013-02-15 17:38:00,46.4,18.1,-100.00,North,0,12.0,18.0,32,0.00,,,0.00,meteohub,2013-02-15 23:38:00,
2013-02-15 17:39:00,46.4,18.1,-100.00,North,5,10.0,18.0,32,0.00,,,0.00,meteohub,2013-02-15 23:39:00,
2013-02-15 17:41:00,46.4,18.9,-100.00,North,0,15.0,18.0,33,0.00,,,0.00,meteohub,2013-02-15 23:41:00,
2013-02-15 17:42:00,46.4,18.9,-100.00,North,0,7.0,18.0,33,0.00,,,0.00,meteohub,2013-02-15 23:42:00,
2013-02-15 17:43:00,46.4,18.1,-100.00,NNW,346,12.0,18.0,32,0.00,,,0.00,meteohub,2013-02-15 23:43:00,
2013-02-15 17:44:00,46.2,18.0,-100.00,North,355,15.0,18.0,32,0.00,,,0.00,meteohub,2013-02-15 23:44:00,
2013-02-15 17:46:00,46.2,18.0,-100.00,North,5,6.0,17.0,32,0.00,,,0.00,meteohub,2013-02-15 23:46:00,
2013-02-15 17:47:00,46.2,18.0,-100.00,NNW,348,12.0,17.0,32,0.00,,,0.00,meteohub,2013-02-15 23:47:00,
2013-02-15 17:48:00,46.0,18.5,-100.00,North,0,9.0,17.0,33,0.00,,,0.00,meteohub,2013-02-15 23:48:00,
2013-02-15 17:49:00,46.0,19.2,-100.00,NNW,346,12.0,17.0,34,0.00,,,0.00,meteohub,2013-02-15 23:49:00,
2013-02-15 17:52:00,46.0,19.2,-100.00,North,0,5.0,17.0,34,0.00,,,0.00,meteohub,2013-02-15 23:52:00,
2013-02-15 17:54:00,45.7,19.6,-100.00,North,355,4.0,17.0,35,0.00,,,0.00,meteohub,2013-02-15 23:54:00,
2013-02-15 17:57:00,45.3,19.9,-100.00,North,355,7.0,15.0,36,0.00,,,0.00,meteohub,2013-02-15 23:57:00,
2013-02-15 17:59:00,45.1,19.0,-100.00,North,355,6.0,15.0,35,0.00,,,0.00,meteohub,2013-02-15 23:59:00,
2013-02-15 18:00:00,45.1,19.0,-100.00,North,355,9.0,15.0,35,0.00,,,0.00,meteohub,2013-02-16 00:00:00,
2013-02-15 18:02:00,45.1,19.8,-100.00,North,351,10.0,15.0,36,0.00,,,0.00,meteohub,2013-02-16 00:02:00,
2013-02-15 18:04:00,45.0,20.3,-100.00,North,9,4.0,15.0,37,0.00,,,0.00,meteohub,2013-02-16 00:04:00,
2013-02-15 18:05:00,45.0,20.3,-100.00,North,5,6.0,15.0,37,0.00,,,0.00,meteohub,2013-02-16 00:05:00,
2013-02-15 18:07:00,44.8,20.1,-100.00,North,0,6.0,12.0,37,0.00,,,0.00,meteohub,2013-02-16 00:07:00,
2013-02-15 18:09:00,44.8,20.1,-100.00,NNE,14,6.0,12.0,37,0.00,,,0.00,meteohub,2013-02-16 00:09:00,
2013-02-15 18:10:00,44.8,20.1,-100.00,North,355,8.0,12.0,37,0.00,,,0.00,meteohub,2013-02-16 00:10:00,
2013-02-15 18:12:00,44.6,20.5,-100.00,North,0,8.0,12.0,38,0.00,,,0.00,meteohub,2013-02-16 00:12:00,
2013-02-15 18:14:00,44.8,19.4,-100.00,North,0,10.0,12.0,36,0.00,,,0.00,meteohub,2013-02-16 00:14:00,
2013-02-15 18:16:00,44.8,20.7,-100.00,North,355,7.0,12.0,38,0.00,,,0.00,meteohub,2013-02-16 00:16:00,
2013-02-15 18:18:00,44.8,20.1,-100.00,North,355,5.0,13.0,37,0.00,,,0.00,meteohub,2013-02-16 00:18:00,
2013-02-15 18:19:00,44.6,20.5,-100.00,North,355,5.0,13.0,38,0.00,,,0.00,meteohub,2013-02-16 00:19:00,
2013-02-15 18:20:00,44.6,20.5,-100.00,North,355,8.0,13.0,38,0.00,,,0.00,meteohub,2013-02-16 00:20:00,
2013-02-15 18:21:00,44.6,20.5,-100.00,North,355,6.0,13.0,38,0.00,,,0.00,meteohub,2013-02-16 00:21:00,
2013-02-15 18:24:00,44.4,20.5,-100.00,North,0,3.0,13.0,38,0.00,,,0.00,meteohub,2013-02-16 00:24:00,
2013-02-15 18:25:00,44.2,20.8,-100.00,North,0,7.0,13.0,39,0.00,,,0.00,meteohub,2013-02-16 00:25:00,
2013-02-15 18:26:00,44.2,20.3,-100.00,North,0,5.0,13.0,38,0.00,,,0.00,meteohub,2013-02-16 00:26:00,
2013-02-15 18:29:00,44.1,20.7,-100.00,North,0,5.0,13.0,39,0.00,,,0.00,meteohub,2013-02-16 00:29:00,
2013-02-15 18:30:00,44.1,20.7,-100.00,North,0,7.0,13.0,39,0.00,,,0.00,meteohub,2013-02-16 00:30:00,
2013-02-15 18:31:00,43.9,20.5,-100.00,North,0,5.0,12.0,39,0.00,,,0.00,meteohub,2013-02-16 00:31:00,
2013-02-15 18:34:00,43.9,21.2,-100.00,North,0,4.0,12.0,40,0.00,,,0.00,meteohub,2013-02-16 00:34:00,
2013-02-15 18:35:00,43.9,21.2,-100.00,North,0,4.0,12.0,40,0.00,,,0.00,meteohub,2013-02-16 00:35:00,
2013-02-15 18:36:00,43.5,20.1,-100.00,North,0,3.0,10.0,39,0.00,,,0.00,meteohub,2013-02-16 00:36:00,
2013-02-15 18:40:00,43.5,20.8,-100.00,North,0,3.0,10.0,40,0.00,,,0.00,meteohub,2013-02-16 00:40:00,
2013-02-15 18:41:00,43.5,20.8,-100.00,North,0,3.0,9.0,40,0.00,,,0.00,meteohub,2013-02-16 00:41:00,
2013-02-15 18:42:00,43.3,20.7,-100.00,North,0,3.0,9.0,40,0.00,,,0.00,meteohub,2013-02-16 00:42:00,
2013-02-15 18:45:00,43.2,21.0,-100.00,North,0,5.0,9.0,41,0.00,,,0.00,meteohub,2013-02-16 00:45:00,
2013-02-15 18:46:00,43.2,21.0,-100.00,North,0,4.0,8.0,41,0.00,,,0.00,meteohub,2013-02-16 00:46:00,
2013-02-15 18:47:00,43.2,21.0,-100.00,North,0,6.0,8.0,41,0.00,,,0.00,meteohub,2013-02-16 00:47:00,
2013-02-15 18:50:00,43.2,21.0,-100.00,North,0,4.0,7.0,41,0.00,,,0.00,meteohub,2013-02-16 00:50:00,
2013-02-15 18:51:00,43.0,20.8,-100.00,North,0,4.0,7.0,41,0.00,,,0.00,meteohub,2013-02-16 00:51:00,
2013-02-15 18:52:00,43.0,20.8,-100.00,North,0,4.0,7.0,41,0.00,,,0.00,meteohub,2013-02-16 00:52:00,
2013-02-15 18:55:00,42.8,20.7,-100.00,North,0,4.0,7.0,41,0.00,,,0.00,meteohub,2013-02-16 00:55:00,
2013-02-15 18:56:00,42.8,20.7,-100.00,North,0,6.0,7.0,41,0.00,,,0.00,meteohub,2013-02-16 00:56:00,
2013-02-15 18:57:00,42.8,21.4,-100.00,North,0,6.0,7.0,42,0.00,,,0.00,meteohub,2013-02-16 00:57:00,
2013-02-15 18:58:00,42.8,20.7,-100.00,North,0,7.0,7.0,41,0.00,,,0.00,meteohub,2013-02-16 00:58:00,
2013-02-15 19:00:00,42.8,21.4,-100.00,North,0,5.0,7.0,42,0.00,,,0.00,meteohub,2013-02-16 01:00:00,
2013-02-15 19:01:00,42.8,21.4,-100.00,North,0,4.0,7.0,42,0.00,,,0.00,meteohub,2013-02-16 01:01:00,
2013-02-15 19:02:00,42.8,21.4,-100.00,North,0,3.0,7.0,42,0.00,,,0.00,meteohub,2013-02-16 01:02:00,
2013-02-15 19:04:00,42.6,21.2,-100.00,North,0,4.0,7.0,42,0.00,,,0.00,meteohub,2013-02-16 01:04:00,
2013-02-15 19:05:00,42.6,21.2,-100.00,North,0,3.0,7.0,42,0.00,,,0.00,meteohub,2013-02-16 01:05:00,
2013-02-15 19:07:00,42.6,21.7,-100.00,North,0,4.0,7.0,43,0.00,,,0.00,meteohub,2013-02-16 01:07:00,
2013-02-15 19:08:00,42.4,21.6,-100.00,North,0,4.0,7.0,43,0.00,,,0.00,meteohub,2013-02-16 01:08:00,
2013-02-15 19:09:00,42.4,22.1,-100.00,North,0,6.0,7.0,44,0.00,,,0.00,meteohub,2013-02-16 01:09:00,
2013-02-15 19:10:00,42.3,21.4,-100.00,North,0,3.0,7.0,43,0.00,,,0.00,meteohub,2013-02-16 01:10:00,
2013-02-15 19:12:00,42.3,21.4,-100.00,North,0,3.0,7.0,43,0.00,,,0.00,meteohub,2013-02-16 01:12:00,
2013-02-15 19:13:00,42.3,21.4,-100.00,North,0,3.0,7.0,43,0.00,,,0.00,meteohub,2013-02-16 01:13:00,
2013-02-15 19:15:00,42.3,21.4,-100.00,North,0,6.0,7.0,43,0.00,,,0.00,meteohub,2013-02-16 01:15:00,
2013-02-15 19:16:00,42.1,21.2,-100.00,North,0,4.0,6.0,43,0.00,,,0.00,meteohub,2013-02-16 01:16:00,
2013-02-15 19:17:00,42.1,21.2,-100.00,North,0,3.0,6.0,43,0.00,,,0.00,meteohub,2013-02-16 01:17:00,
2013-02-15 19:19:00,41.9,21.0,-100.00,North,0,3.0,6.0,43,0.00,,,0.00,meteohub,2013-02-16 01:19:00,
2013-02-15 19:20:00,41.9,21.6,-100.00,North,0,6.0,6.0,44,0.00,,,0.00,meteohub,2013-02-16 01:20:00,
2013-02-15 19:21:00,41.9,21.0,-100.00,North,0,6.0,6.0,43,0.00,,,0.00,meteohub,2013-02-16 01:21:00,
2013-02-15 19:23:00,41.9,21.0,-100.00,North,0,5.0,6.0,43,0.00,,,0.00,meteohub,2013-02-16 01:23:00,
2013-02-15 19:24:00,41.9,21.0,-100.00,North,0,7.0,7.0,43,0.00,,,0.00,meteohub,2013-02-16 01:24:00,
2013-02-15 19:26:00,41.9,21.6,-100.00,North,0,5.0,9.0,44,0.00,,,0.00,meteohub,2013-02-16 01:26:00,
2013-02-15 19:28:00,41.9,21.0,-100.00,North,0,6.0,9.0,43,0.00,,,0.00,meteohub,2013-02-16 01:28:00,
2013-02-15 19:29:00,41.9,21.0,-100.00,North,0,5.0,9.0,43,0.00,,,0.00,meteohub,2013-02-16 01:29:00,
2013-02-15 19:31:00,41.9,20.5,-100.00,North,0,3.0,9.0,42,0.00,,,0.00,meteohub,2013-02-16 01:31:00,
2013-02-15 19:33:00,41.9,21.0,-100.00,North,0,3.0,9.0,43,0.00,,,0.00,meteohub,2013-02-16 01:33:00,
2013-02-15 19:34:00,41.9,20.5,-100.00,North,0,2.0,9.0,42,0.00,,,0.00,meteohub,2013-02-16 01:34:00,
2013-02-15 19:36:00,41.7,20.3,-100.00,North,0,3.0,9.0,42,0.00,,,0.00,meteohub,2013-02-16 01:36:00,
2013-02-15 19:37:00,41.7,20.3,-100.00,North,0,4.0,9.0,42,0.00,,,0.00,meteohub,2013-02-16 01:37:00,
2013-02-15 19:39:00,41.9,20.5,-100.00,North,0,3.0,9.0,42,0.00,,,0.00,meteohub,2013-02-16 01:39:00,
2013-02-15 19:40:00,41.9,20.5,-100.00,North,0,3.0,9.0,42,0.00,,,0.00,meteohub,2013-02-16 01:40:00,
2013-02-15 19:42:00,41.7,20.3,-100.00,North,0,2.0,6.0,42,0.00,,,0.00,meteohub,2013-02-16 01:42:00,
2013-02-15 19:45:00,41.7,20.3,-100.00,North,0,4.0,6.0,42,0.00,,,0.00,meteohub,2013-02-16 01:45:00,
2013-02-15 19:47:00,41.7,20.3,-100.00,North,0,3.0,5.0,42,0.00,,,0.00,meteohub,2013-02-16 01:47:00,
2013-02-15 19:50:00,41.5,20.1,-100.00,North,0,3.0,5.0,42,0.00,,,0.00,meteohub,2013-02-16 01:50:00,
2013-02-15 19:52:00,41.5,20.1,-100.00,North,0,4.0,6.0,42,0.00,,,0.00,meteohub,2013-02-16 01:52:00,
2013-02-15 19:53:00,41.5,20.1,-100.00,North,0,4.0,6.0,42,0.00,,,0.00,meteohub,2013-02-16 01:53:00,
2013-02-15 19:55:00,41.5,20.1,-100.00,North,0,3.0,6.0,42,0.00,,,0.00,meteohub,2013-02-16 01:55:00,
2013-02-15 19:58:00,41.4,19.9,-100.00,North,0,3.0,6.0,42,0.00,,,0.00,meteohub,2013-02-16 01:58:00,
2013-02-15 20:00:00,41.2,19.8,-100.00,North,0,3.0,6.0,42,0.00,,,0.00,meteohub,2013-02-16 02:00:00,
2013-02-15 20:03:00,41.2,19.8,-100.00,North,0,2.0,5.0,42,0.00,,,0.00,meteohub,2013-02-16 02:03:00,
2013-02-15 20:04:00,41.2,19.8,-100.00,North,0,2.0,5.0,42,0.00,,,0.00,meteohub,2013-02-16 02:04:00,
2013-02-15 20:05:00,41.2,19.8,-100.00,North,0,3.0,5.0,42,0.00,,,0.00,meteohub,2013-02-16 02:05:00,
2013-02-15 20:08:00,41.2,19.8,-100.00,North,0,3.0,5.0,42,0.00,,,0.00,meteohub,2013-02-16 02:08:00,
2013-02-15 20:09:00,41.2,19.8,-100.00,North,0,1.0,5.0,42,0.00,,,0.00,meteohub,2013-02-16 02:09:00,
2013-02-15 20:10:00,41.2,19.8,-100.00,North,0,3.0,5.0,42,0.00,,,0.00,meteohub,2013-02-16 02:10:00,
2013-02-15 20:13:00,41.2,19.8,-100.00,North,0,2.0,5.0,42,0.00,,,0.00,meteohub,2013-02-16 02:13:00,
2013-02-15 20:14:00,41.2,19.8,-100.00,North,0,3.0,5.0,42,0.00,,,0.00,meteohub,2013-02-16 02:14:00,
2013-02-15 20:15:00,41.2,19.8,-100.00,North,0,3.0,5.0,42,0.00,,,0.00,meteohub,2013-02-16 02:15:00,
2013-02-15 20:16:00,41.2,19.8,-100.00,North,0,3.0,5.0,42,0.00,,,0.00,meteohub,2013-02-16 02:16:00,
2013-02-15 20:18:00,41.2,19.8,-100.00,North,0,1.0,5.0,42,0.00,,,0.00,meteohub,2013-02-16 02:18:00,
2013-02-15 20:19:00,41.2,19.8,-100.00,North,0,4.0,5.0,42,0.00,,,0.00,meteohub,2013-02-16 02:19:00,
2013-02-15 20:20:00,41.2,19.8,-100.00,North,0,2.0,5.0,42,0.00,,,0.00,meteohub,2013-02-16 02:20:00,
2013-02-15 20:22:00,41.2,19.8,-100.00,North,0,2.0,5.0,42,0.00,,,0.00,meteohub,2013-02-16 02:22:00,
2013-02-15 20:24:00,41.2,19.8,-100.00,North,0,2.0,5.0,42,0.00,,,0.00,meteohub,2013-02-16 02:24:00,
2013-02-15 20:26:00,41.2,19.8,-100.00,North,0,2.0,4.0,42,0.00,,,0.00,meteohub,2013-02-16 02:26:00,
2013-02-15 20:27:00,41.2,19.8,-100.00,North,0,2.0,4.0,42,0.00,,,0.00,meteohub,2013-02-16 02:27:00,
2013-02-15 20:29:00,41.2,19.8,-100.00,North,0,1.0,4.0,42,0.00,,,0.00,meteohub,2013-02-16 02:29:00,
2013-02-15 20:31:00,41.2,19.8,-100.00,North,0,2.0,4.0,42,0.00,,,0.00,meteohub,2013-02-16 02:31:00,
2013-02-15 20:32:00,41.2,19.8,-100.00,North,0,2.0,4.0,42,0.00,,,0.00,meteohub,2013-02-16 02:32:00,
2013-02-15 20:34:00,41.2,19.8,-100.00,North,0,1.0,4.0,42,0.00,,,0.00,meteohub,2013-02-16 02:34:00,
2013-02-15 20:36:00,41.2,19.8,-100.00,North,0,2.0,4.0,42,0.00,,,0.00,meteohub,2013-02-16 02:36:00,
2013-02-15 20:37:00,41.2,19.8,-100.00,North,0,2.0,4.0,42,0.00,,,0.00,meteohub,2013-02-16 02:37:00,
2013-02-15 20:39:00,40.8,20.1,-100.00,North,0,2.0,4.0,43,0.00,,,0.00,meteohub,2013-02-16 02:39:00,
2013-02-15 20:40:00,40.8,20.1,-100.00,North,0,0.0,4.0,43,0.00,,,0.00,meteohub,2013-02-16 02:40:00,
2013-02-15 20:42:00,40.8,19.6,-100.00,North,0,2.0,3.0,42,0.00,,,0.00,meteohub,2013-02-16 02:42:00,
2013-02-15 20:44:00,40.8,19.6,-100.00,North,0,1.0,3.0,42,0.00,,,0.00,meteohub,2013-02-16 02:44:00,
2013-02-15 20:45:00,40.8,19.6,-100.00,North,0,0.0,3.0,42,0.00,,,0.00,meteohub,2013-02-16 02:45:00,
2013-02-15 20:47:00,40.8,19.6,-100.00,North,0,0.0,3.0,42,0.00,,,0.00,meteohub,2013-02-16 02:47:00,
2013-02-15 20:48:00,40.6,19.4,-100.00,North,0,2.0,3.0,42,0.00,,,0.00,meteohub,2013-02-16 02:48:00,
2013-02-15 20:50:00,40.6,19.4,-100.00,North,0,1.0,3.0,42,0.00,,,0.00,meteohub,2013-02-16 02:50:00,
2013-02-15 20:51:00,40.6,19.4,-100.00,North,0,0.0,3.0,42,0.00,,,0.00,meteohub,2013-02-16 02:51:00,
2013-02-15 20:52:00,40.5,19.2,-100.00,North,0,1.0,3.0,42,0.00,,,0.00,meteohub,2013-02-16 02:52:00,
2013-02-15 20:53:00,40.5,19.8,-100.00,North,0,1.0,3.0,43,0.00,,,0.00,meteohub,2013-02-16 02:53:00,
2013-02-15 20:55:00,40.5,19.8,-100.00,North,0,1.0,3.0,43,0.00,,,0.00,meteohub,2013-02-16 02:55:00,
2013-02-15 20:56:00,40.5,19.8,-100.00,North,0,1.0,2.0,43,0.00,,,0.00,meteohub,2013-02-16 02:56:00,
2013-02-15 20:58:00,40.5,19.8,-100.00,North,0,1.0,2.0,43,0.00,,,0.00,meteohub,2013-02-16 02:58:00,
2013-02-15 21:01:00,40.3,20.1,-100.00,North,0,1.0,2.0,44,0.00,,,0.00,meteohub,2013-02-16 03:01:00,
2013-02-15 21:03:00,40.3,20.1,-100.00,North,0,1.0,2.0,44,0.00,,,0.00,meteohub,2013-02-16 03:03:00,
2013-02-15 21:04:00,40.3,20.1,-100.00,North,0,2.0,2.0,44,0.00,,,0.00,meteohub,2013-02-16 03:04:00,
2013-02-15 21:06:00,40.1,19.9,-100.00,North,0,2.0,3.0,44,0.00,,,0.00,meteohub,2013-02-16 03:06:00,
2013-02-15 21:08:00,40.1,19.9,-100.00,North,0,2.0,3.0,44,0.00,,,0.00,meteohub,2013-02-16 03:08:00,
2013-02-15 21:09:00,40.1,19.9,-100.00,North,0,3.0,3.0,44,0.00,,,0.00,meteohub,2013-02-16 03:09:00,
2013-02-15 21:12:00,40.1,19.9,-100.00,North,0,3.0,3.0,44,0.00,,,0.00,meteohub,2013-02-16 03:12:00,
2013-02-15 21:13:00,40.1,19.9,-100.00,North,0,3.0,3.0,44,0.00,,,0.00,meteohub,2013-02-16 03:13:00,
2013-02-15 21:14:00,39.9,19.8,-100.00,North,0,3.0,3.0,44,0.00,,,0.00,meteohub,2013-02-16 03:14:00,
2013-02-15 21:17:00,39.9,20.3,-100.00,North,0,3.0,4.0,45,0.00,,,0.00,meteohub,2013-02-16 03:17:00,
2013-02-15 21:18:00,39.9,20.8,-100.00,North,0,3.0,4.0,46,0.00,,,0.00,meteohub,2013-02-16 03:18:00,
2013-02-15 21:20:00,39.9,20.8,-100.00,North,0,2.0,4.0,46,0.00,,,0.00,meteohub,2013-02-16 03:20:00,
2013-02-15 21:22:00,39.7,20.7,-100.00,North,0,3.0,4.0,46,0.00,,,0.00,meteohub,2013-02-16 03:22:00,
2013-02-15 21:23:00,39.7,20.7,-100.00,North,0,3.0,4.0,46,0.00,,,0.00,meteohub,2013-02-16 03:23:00,
2013-02-15 21:25:00,39.6,20.5,-100.00,North,0,3.0,4.0,46,0.00,,,0.00,meteohub,2013-02-16 03:25:00,
2013-02-15 21:28:00,39.6,21.0,-100.00,North,0,4.0,5.0,47,0.00,,,0.00,meteohub,2013-02-16 03:28:00,
2013-02-15 21:30:00,39.6,21.6,-100.00,North,0,4.0,5.0,48,0.00,,,0.00,meteohub,2013-02-16 03:30:00,
2013-02-15 21:33:00,39.4,21.4,-100.00,North,0,4.0,5.0,48,0.00,,,0.00,meteohub,2013-02-16 03:33:00,
2013-02-15 21:34:00,39.4,21.4,-100.00,North,0,4.0,5.0,48,0.00,,,0.00,meteohub,2013-02-16 03:34:00,
2013-02-15 21:35:00,39.2,21.2,-100.00,North,0,2.0,5.0,48,0.00,,,0.00,meteohub,2013-02-16 03:35:00,
2013-02-15 21:39:00,39.2,20.7,-100.00,North,0,3.0,5.0,47,0.00,,,0.00,meteohub,2013-02-16 03:39:00,
2013-02-15 21:40:00,39.0,20.5,-100.00,North,0,3.0,5.0,47,0.00,,,0.00,meteohub,2013-02-16 03:40:00,
2013-02-15 21:44:00,39.0,20.5,-100.00,North,0,4.0,5.0,47,0.00,,,0.00,meteohub,2013-02-16 03:44:00,
2013-02-15 21:45:00,38.8,20.3,-100.00,North,0,3.0,5.0,47,0.00,,,0.00,meteohub,2013-02-16 03:45:00,
2013-02-15 21:49:00,38.8,20.3,-100.00,North,0,2.0,5.0,47,0.00,,,0.00,meteohub,2013-02-16 03:49:00,
2013-02-15 21:50:00,38.8,20.3,-100.00,North,0,3.0,5.0,47,0.00,,,0.00,meteohub,2013-02-16 03:50:00,
2013-02-15 21:54:00,38.8,20.3,-100.00,North,0,3.0,4.0,47,0.00,,,0.00,meteohub,2013-02-16 03:54:00,
2013-02-15 21:55:00,38.8,20.3,-100.00,North,0,2.0,4.0,47,0.00,,,0.00,meteohub,2013-02-16 03:55:00,
2013-02-15 21:56:00,38.8,20.3,-100.00,North,0,2.0,4.0,47,0.00,,,0.00,meteohub,2013-02-16 03:56:00,
2013-02-15 21:59:00,38.8,20.3,-100.00,North,0,2.0,4.0,47,0.00,,,0.00,meteohub,2013-02-16 03:59:00,
2013-02-15 22:00:00,38.8,20.3,-100.00,North,0,2.0,4.0,47,0.00,,,0.00,meteohub,2013-02-16 04:00:00,
2013-02-15 22:02:00,38.8,20.3,-100.00,North,0,3.0,4.0,47,0.00,,,0.00,meteohub,2013-02-16 04:02:00,
2013-02-15 22:04:00,38.8,20.3,-100.00,North,0,2.0,4.0,47,0.00,,,0.00,meteohub,2013-02-16 04:04:00,
2013-02-15 22:05:00,38.8,20.3,-100.00,North,0,1.0,4.0,47,0.00,,,0.00,meteohub,2013-02-16 04:05:00,
2013-02-15 22:06:00,38.8,20.3,-100.00,North,0,2.0,4.0,47,0.00,,,0.00,meteohub,2013-02-16 04:06:00,
2013-02-15 22:07:00,38.8,20.3,-100.00,North,0,2.0,4.0,47,0.00,,,0.00,meteohub,2013-02-16 04:07:00,
2013-02-15 22:10:00,38.8,20.3,-100.00,North,0,2.0,4.0,47,0.00,,,0.00,meteohub,2013-02-16 04:10:00,
2013-02-15 22:11:00,38.8,20.3,-100.00,North,0,1.0,3.0,47,0.00,,,0.00,meteohub,2013-02-16 04:11:00,
2013-02-15 22:12:00,38.8,20.3,-100.00,North,0,1.0,3.0,47,0.00,,,0.00,meteohub,2013-02-16 04:12:00,
2013-02-15 22:15:00,38.8,20.3,-100.00,North,0,1.0,3.0,47,0.00,,,0.00,meteohub,2013-02-16 04:15:00,
2013-02-15 22:16:00,38.8,20.3,-100.00,North,0,2.0,3.0,47,0.00,,,0.00,meteohub,2013-02-16 04:16:00,
2013-02-15 22:17:00,38.8,20.3,-100.00,North,0,2.0,3.0,47,0.00,,,0.00,meteohub,2013-02-16 04:17:00,
2013-02-15 22:20:00,38.8,20.3,-100.00,North,0,3.0,3.0,47,0.00,,,0.00,meteohub,2013-02-16 04:20:00,
2013-02-15 22:21:00,38.7,20.1,-100.00,North,0,2.0,3.0,47,0.00,,,0.00,meteohub,2013-02-16 04:21:00,
2013-02-15 22:22:00,38.7,20.1,-100.00,North,0,1.0,3.0,47,0.00,,,0.00,meteohub,2013-02-16 04:22:00,
2013-02-15 22:26:00,38.7,20.1,-100.00,North,0,0.0,3.0,47,0.00,,,0.00,meteohub,2013-02-16 04:26:00,
2013-02-15 22:27:00,38.5,19.9,-100.00,North,0,0.0,3.0,47,0.00,,,0.00,meteohub,2013-02-16 04:27:00,
2013-02-15 22:28:00,38.5,19.9,-100.00,North,0,1.0,3.0,47,0.00,,,0.00,meteohub,2013-02-16 04:28:00,
2013-02-15 22:31:00,38.3,19.8,-100.00,North,0,2.0,3.0,47,0.00,,,0.00,meteohub,2013-02-16 04:31:00,
2013-02-15 22:32:00,38.3,19.8,-100.00,North,0,2.0,3.0,47,0.00,,,0.00,meteohub,2013-02-16 04:32:00,
2013-02-15 22:33:00,38.3,20.3,-100.00,North,0,3.0,3.0,48,0.00,,,0.00,meteohub,2013-02-16 04:33:00,
2013-02-15 22:37:00,38.1,20.1,-100.00,North,0,2.0,3.0,48,0.00,,,0.00,meteohub,2013-02-16 04:37:00,
2013-02-15 22:38:00,38.1,20.1,-100.00,North,0,1.0,3.0,48,0.00,,,0.00,meteohub,2013-02-16 04:38:00,
2013-02-15 22:42:00,37.9,20.5,-100.00,North,0,1.0,3.0,49,0.00,,,0.00,meteohub,2013-02-16 04:42:00,
2013-02-15 22:43:00,37.9,20.5,-100.00,North,0,1.0,3.0,49,0.00,,,0.00,meteohub,2013-02-16 04:43:00,
2013-02-15 22:47:00,37.9,21.0,-100.00,North,0,1.0,3.0,50,0.00,,,0.00,meteohub,2013-02-16 04:47:00,
2013-02-15 22:48:00,37.9,21.0,-100.00,North,0,1.0,3.0,50,0.00,,,0.00,meteohub,2013-02-16 04:48:00,
2013-02-15 22:52:00,37.8,20.8,-100.00,North,0,0.0,2.0,50,0.00,,,0.00,meteohub,2013-02-16 04:52:00,
2013-02-15 22:53:00,37.6,20.7,-100.00,North,0,1.0,2.0,50,0.00,,,0.00,meteohub,2013-02-16 04:53:00,
2013-02-15 22:54:00,37.6,20.7,-100.00,North,0,1.0,2.0,50,0.00,,,0.00,meteohub,2013-02-16 04:54:00,
2013-02-15 22:57:00,37.2,21.2,-100.00,North,0,0.0,2.0,52,0.00,,,0.00,meteohub,2013-02-16 04:57:00,
2013-02-15 22:58:00,37.2,20.8,-100.00,North,0,0.0,2.0,51,0.00,,,0.00,meteohub,2013-02-16 04:58:00,
2013-02-15 22:59:00,37.2,20.8,-100.00,North,0,0.0,2.0,51,0.00,,,0.00,meteohub,2013-02-16 04:59:00,
2013-02-15 23:00:00,37.0,20.7,-100.00,North,0,0.0,2.0,51,0.00,,,0.00,meteohub,2013-02-16 05:00:00,
2013-02-15 23:05:00,36.9,20.5,-100.00,North,0,0.0,2.0,51,0.00,,,0.00,meteohub,2013-02-16 05:05:00,
2013-02-15 23:10:00,36.5,20.5,-100.00,North,0,0.0,2.0,52,0.00,,,0.00,meteohub,2013-02-16 05:10:00,
2013-02-15 23:13:00,36.3,20.3,-100.00,North,0,0.0,2.0,52,0.00,,,0.00,meteohub,2013-02-16 05:13:00,
2013-02-15 23:15:00,36.3,20.3,-100.00,North,0,0.0,2.0,52,0.00,,,0.00,meteohub,2013-02-16 05:15:00,
2013-02-15 23:16:00,36.3,20.3,-100.00,North,0,0.0,0.0,52,0.00,,,0.00,meteohub,2013-02-16 05:16:00,
2013-02-15 23:18:00,36.1,20.3,-100.00,North,0,0.0,0.0,52,0.00,,,0.00,meteohub,2013-02-16 05:18:00,
2013-02-15 23:20:00,36.0,20.5,-100.00,North,0,0.0,0.0,53,0.00,,,0.00,meteohub,2013-02-16 05:20:00,
2013-02-15 23:21:00,36.0,21.0,-100.00,North,0,1.0,0.0,54,0.00,,,0.00,meteohub,2013-02-16 05:21:00,
2013-02-15 23:23:00,36.0,21.7,-100.00,North,0,1.0,0.0,56,0.00,,,0.00,meteohub,2013-02-16 05:23:00,
2013-02-15 23:25:00,36.0,21.7,-100.00,North,0,1.0,0.0,56,0.00,,,0.00,meteohub,2013-02-16 05:25:00,
2013-02-15 23:28:00,35.8,20.8,-100.00,North,0,1.0,1.0,54,0.00,,,0.00,meteohub,2013-02-16 05:28:00,
2013-02-15 23:29:00,35.8,20.8,-100.00,North,0,1.0,1.0,54,0.00,,,0.00,meteohub,2013-02-16 05:29:00,
2013-02-15 23:30:00,36.0,20.5,-100.00,North,0,1.0,1.0,53,0.00,,,0.00,meteohub,2013-02-16 05:30:00,
2013-02-15 23:33:00,36.0,20.5,-100.00,North,0,0.0,1.0,53,0.00,,,0.00,meteohub,2013-02-16 05:33:00,
2013-02-15 23:35:00,36.0,21.0,-100.00,North,0,0.0,1.0,54,0.00,,,0.00,meteohub,2013-02-16 05:35:00,
2013-02-15 23:38:00,36.0,21.0,-100.00,North,0,2.0,2.0,54,0.00,,,0.00,meteohub,2013-02-16 05:38:00,
2013-02-15 23:40:00,36.0,20.5,-100.00,North,0,1.0,2.0,53,0.00,,,0.00,meteohub,2013-02-16 05:40:00,
2013-02-15 23:41:00,36.0,20.5,-100.00,North,0,1.0,2.0,53,0.00,,,0.00,meteohub,2013-02-16 05:41:00,
2013-02-15 23:44:00,35.6,20.1,-100.00,North,0,1.0,2.0,53,0.00,,,0.00,meteohub,2013-02-16 05:44:00,
2013-02-15 23:45:00,35.2,19.8,-100.00,North,0,2.0,3.0,53,0.00,,,0.00,meteohub,2013-02-16 05:45:00,
2013-02-15 23:46:00,35.2,19.8,-100.00,North,0,2.0,3.0,53,0.00,,,0.00,meteohub,2013-02-16 05:46:00,
2013-02-15 23:49:00,35.1,20.1,-100.00,North,0,2.0,3.0,54,0.00,,,0.00,meteohub,2013-02-16 05:49:00,
2013-02-15 23:51:00,34.9,20.3,-100.00,North,0,3.0,3.0,55,0.00,,,0.00,meteohub,2013-02-16 05:51:00,
2013-02-15 23:54:00,34.9,21.2,-100.00,North,0,3.0,3.0,57,0.00,,,0.00,meteohub,2013-02-16 05:54:00,
2013-02-15 23:56:00,34.9,21.2,-100.00,North,0,3.0,3.0,57,0.00,,,0.00,meteohub,2013-02-16 05:56:00,